Jump to: Map   Top of Page   Track Data   Planned Ports of Call   Notes   Bottom of Page
  Track data: (most recent on top)
  Each circular icon on the map marks a measurement point in this list.
      Date-Time(UTC)       Hawaiʻi-Standard-Time    Approximate-Local-Time    Latitude  Longitude  Course Speed Vessel
  YYYY-MM-DDThh:mm:ss    YYYY-MM-DDThh:mm:ss-10:00 YYYY-MM-DDThh:mm:ss∓HH:MM   degrees    degrees degrees knots
  2022-08-09T18:18:32UTC 2022-08-09T08:18:32-10:00 2022-08-09T07:18:32-11:00  21.31302 -157.88886     316   0.0 Hōkūleʻa
  2022-08-09T17:18:30UTC 2022-08-09T07:18:30-10:00 2022-08-09T06:18:30-11:00  21.31299 -157.88883       0   0.0 Hōkūleʻa
  2022-08-09T16:18:45UTC 2022-08-09T06:18:45-10:00 2022-08-09T05:18:45-11:00  21.31299 -157.88883     180   0.0 Hōkūleʻa
  2022-08-09T15:18:31UTC 2022-08-09T05:18:31-10:00 2022-08-09T04:18:31-11:00  21.31300 -157.88883       0   0.0 Hōkūleʻa
  2022-08-09T14:18:29UTC 2022-08-09T04:18:29-10:00 2022-08-09T03:18:29-11:00  21.31298 -157.88883     180   0.0 Hōkūleʻa
  2022-08-09T13:18:29UTC 2022-08-09T03:18:29-10:00 2022-08-09T02:18:29-11:00  21.31299 -157.88883       0   0.0 Hōkūleʻa
  2022-08-09T12:18:48UTC 2022-08-09T02:18:48-10:00 2022-08-09T01:18:48-11:00  21.31299 -157.88883     180   0.0 Hōkūleʻa
  2022-08-09T11:18:46UTC 2022-08-09T01:18:46-10:00 2022-08-09T00:18:46-11:00  21.31300 -157.88883       0   0.0 Hōkūleʻa
  2022-08-09T10:18:24UTC 2022-08-09T00:18:24-10:00 2022-08-08T23:18:24-11:00  21.31299 -157.88883       0   0.0 Hōkūleʻa
  2022-08-09T09:18:32UTC 2022-08-08T23:18:32-10:00 2022-08-08T22:18:32-11:00  21.31299 -157.88883     180   0.0 Hōkūleʻa
  2022-08-09T08:18:47UTC 2022-08-08T22:18:47-10:00 2022-08-08T21:18:47-11:00  21.31300 -157.88883       0   0.0 Hōkūleʻa
  2022-08-09T07:18:38UTC 2022-08-08T21:18:38-10:00 2022-08-08T20:18:38-11:00  21.31299 -157.88883     180   0.0 Hōkūleʻa
  2022-08-09T06:18:38UTC 2022-08-08T20:18:38-10:00 2022-08-08T19:18:38-11:00  21.31304 -157.88883       0   0.0 Hōkūleʻa
  2022-08-09T05:18:27UTC 2022-08-08T19:18:27-10:00 2022-08-08T18:18:27-11:00  21.31302 -157.88883       0   0.0 Hōkūleʻa
  2022-08-09T04:18:43UTC 2022-08-08T18:18:43-10:00 2022-08-08T17:18:43-11:00  21.31300 -157.88883      90   0.0 Hōkūleʻa
  2022-08-09T03:17:39UTC 2022-08-08T17:17:39-10:00 2022-08-08T16:17:39-11:00  21.31300 -157.88888     180   0.0 Hōkūleʻa
  2022-08-09T02:18:30UTC 2022-08-08T16:18:30-10:00 2022-08-08T15:18:30-11:00  21.31303 -157.88888     270   0.0 Hōkūleʻa
  2022-08-09T01:18:32UTC 2022-08-08T15:18:32-10:00 2022-08-08T14:18:32-11:00  21.31303 -157.88886     317   0.0 Hōkūleʻa
  2022-08-09T00:17:48UTC 2022-08-08T14:17:48-10:00 2022-08-08T13:17:48-11:00  21.31300 -157.88883       0   0.0 Hōkūleʻa
  2022-08-08T23:17:47UTC 2022-08-08T13:17:47-10:00 2022-08-08T12:17:47-11:00  21.31299 -157.88883     180   0.0 Hōkūleʻa
  2022-08-08T22:18:34UTC 2022-08-08T12:18:34-10:00 2022-08-08T11:18:34-11:00  21.31304 -157.88883      43   0.0 Hōkūleʻa
  2022-08-08T21:17:33UTC 2022-08-08T11:17:33-10:00 2022-08-08T10:17:33-11:00  21.31299 -157.88888       0   0.0 Hōkūleʻa
  2022-08-08T20:17:45UTC 2022-08-08T10:17:45-10:00 2022-08-08T09:17:45-11:00  21.31299 -157.88888     243   0.0 Hōkūleʻa
  2022-08-08T19:18:33UTC 2022-08-08T09:18:33-10:00 2022-08-08T08:18:33-11:00  21.31300 -157.88886       0   0.0 Hōkūleʻa
  2022-08-08T19:10:17UTC 2022-08-08T09:10:17-10:00 2022-08-08T08:10:17-11:00  21.31233 -157.88770       0   0.0 Hikianalia
  2022-08-08T18:18:33UTC 2022-08-08T08:18:33-10:00 2022-08-08T07:18:33-11:00  21.31298 -157.88886     224   0.0 Hōkūleʻa
  2022-08-08T18:10:19UTC 2022-08-08T08:10:19-10:00 2022-08-08T07:10:19-11:00  21.31233 -157.88770     126   0.0 Hikianalia
  2022-07-31T06:18:39UTC 2022-07-30T20:18:39-10:00 2022-07-30T19:18:39-11:00  21.31300 -157.88883       0   0.0 Hōkūleʻa
  2022-07-31T05:17:59UTC 2022-07-30T19:17:59-10:00 2022-07-30T18:17:59-11:00  21.31300 -157.88883      72   0.2 Hōkūleʻa
  2022-07-31T04:18:27UTC 2022-07-30T18:18:27-10:00 2022-07-30T17:18:27-11:00  21.31204 -157.89195       6   4.8 Hōkūleʻa
  2022-07-31T03:18:33UTC 2022-07-30T17:18:33-10:00 2022-07-30T16:18:33-11:00  21.23315 -157.90083     188   3.0 Hōkūleʻa
  2022-07-31T02:17:52UTC 2022-07-30T16:17:52-10:00 2022-07-30T15:17:52-11:00  21.28344 -157.89368     189   1.8 Hōkūleʻa
  2022-07-31T01:18:33UTC 2022-07-30T15:18:33-10:00 2022-07-30T14:18:33-11:00  21.31299 -157.88883     180   0.0 Hōkūleʻa
  2022-07-24T06:27:35UTC 2022-07-23T20:27:35-10:00 2022-07-23T19:27:35-11:00  21.31300 -157.88883     148   0.0 Hōkūleʻa
  2022-07-24T05:18:29UTC 2022-07-23T19:18:29-10:00 2022-07-23T18:18:29-11:00  21.31310 -157.88890      19   2.2 Hōkūleʻa
  2022-07-24T04:17:41UTC 2022-07-23T18:17:41-10:00 2022-07-23T17:17:41-11:00  21.27772 -157.90165     336   4.0 Hōkūleʻa
  2022-07-24T03:18:40UTC 2022-07-23T17:18:40-10:00 2022-07-23T16:18:40-11:00  21.21769 -157.87261     164   4.9 Hōkūleʻa
  2022-07-24T02:18:40UTC 2022-07-23T16:18:40-10:00 2022-07-23T15:18:40-11:00  21.29596 -157.89725     205   1.1 Hōkūleʻa
  2022-07-24T01:17:33UTC 2022-07-23T15:17:33-10:00 2022-07-23T14:17:33-11:00  21.31302 -157.88883     270   0.0 Hōkūleʻa
  2022-07-22T05:10:19UTC 2022-07-21T19:10:19-10:00 2022-07-21T18:10:19-11:00  21.31310 -157.88883     264   0.0 Hikianalia
  2022-07-22T04:18:33UTC 2022-07-21T18:18:33-10:00 2022-07-21T17:18:33-11:00  21.31302 -157.88879      51   0.0 Hōkūleʻa
  2022-07-22T04:10:47UTC 2022-07-21T18:10:47-10:00 2022-07-21T17:10:47-11:00  21.31312 -157.88862      23   1.2 Hikianalia
  2022-07-22T03:18:32UTC 2022-07-21T17:18:32-10:00 2022-07-21T16:18:32-11:00  21.31298 -157.88883     350   3.4 Hōkūleʻa
  2022-07-22T03:10:19UTC 2022-07-21T17:10:19-10:00 2022-07-21T16:10:19-11:00  21.29412 -157.89712     299   4.6 Hikianalia
  2022-07-22T02:18:12UTC 2022-07-21T16:18:12-10:00 2022-07-21T15:18:12-11:00  21.26213 -157.83433     124   4.1 Hikianalia
  2022-07-22T02:17:54UTC 2022-07-21T16:17:54-10:00 2022-07-21T15:17:54-11:00  21.25665 -157.87780     158   2.8 Hōkūleʻa
  2022-07-22T01:17:31UTC 2022-07-21T15:17:31-10:00 2022-07-21T14:17:31-11:00  21.30060 -157.89645     210   0.0 Hōkūleʻa
  2022-07-22T01:16:09UTC 2022-07-21T15:16:09-10:00 2022-07-21T14:16:09-11:00  21.30130 -157.89643     212   0.0 Hikianalia
  2022-07-15T23:17:35UTC 2022-07-15T13:17:35-10:00 2022-07-15T12:17:35-11:00  21.31300 -157.88883      44   0.0 Hōkūleʻa
  2022-07-15T22:17:49UTC 2022-07-15T12:17:49-10:00 2022-07-15T11:17:49-11:00  21.31298 -157.88886     346   3.9 Hōkūleʻa
  2022-07-15T21:17:41UTC 2022-07-15T11:17:41-10:00 2022-07-15T10:17:41-11:00  21.25010 -157.87231     148   2.0 Hōkūleʻa
  2022-07-15T20:18:38UTC 2022-07-15T10:18:38-10:00 2022-07-15T09:18:38-11:00  21.27833 -157.89079     183   2.1 Hōkūleʻa
  2022-07-15T19:18:32UTC 2022-07-15T09:18:32-10:00 2022-07-15T08:18:32-11:00  21.31310 -157.88862     242   0.0 Hōkūleʻa
  2022-06-17T07:10:32UTC 2022-06-16T21:10:32-10:00 2022-06-16T20:10:32-11:00  21.31324 -157.88849      51   0.0 Hikianalia
  2022-06-17T06:18:35UTC 2022-06-16T20:18:35-10:00 2022-06-16T19:18:35-11:00  21.31311 -157.88860     118   0.0 Hōkūleʻa
  2022-06-17T06:10:47UTC 2022-06-16T20:10:47-10:00 2022-06-16T19:10:47-11:00  21.31298 -157.88883     145   0.1 Hikianalia
  2022-06-17T05:18:35UTC 2022-06-16T19:18:35-10:00 2022-06-16T18:18:35-11:00  21.31312 -157.88862      16   1.5 Hōkūleʻa
  2022-06-17T05:10:20UTC 2022-06-16T19:10:20-10:00 2022-06-16T18:10:20-11:00  21.31369 -157.88937      12   1.5 Hikianalia
  2022-06-17T04:18:44UTC 2022-06-16T18:18:44-10:00 2022-06-16T17:18:44-11:00  21.28936 -157.89583     301   4.2 Hōkūleʻa
  2022-06-17T04:10:20UTC 2022-06-16T18:10:20-10:00 2022-06-16T17:10:20-11:00  21.28920 -157.89514     302   4.4 Hikianalia
  2022-06-17T03:18:50UTC 2022-06-16T17:18:50-10:00 2022-06-16T16:18:50-11:00  21.25264 -157.83141     257   6.6 Hōkūleʻa
  2022-06-17T03:10:20UTC 2022-06-16T17:10:20-10:00 2022-06-16T16:10:20-11:00  21.25102 -157.82888     266   4.6 Hikianalia
  2022-06-17T02:26:59UTC 2022-06-16T16:26:59-10:00 2022-06-16T15:26:59-11:00  21.27371 -157.73196     314   0.0 Hōkūleʻa
  2022-06-17T02:09:50UTC 2022-06-16T16:09:50-10:00 2022-06-16T15:09:50-11:00  21.25652 -157.74606     289   4.7 Hikianalia
  2022-06-17T01:17:34UTC 2022-06-16T15:17:34-10:00 2022-06-16T14:17:34-11:00  21.27362 -157.73185     305   7.1 Hōkūleʻa
  2022-06-17T01:09:11UTC 2022-06-16T15:09:11-10:00 2022-06-16T14:09:11-11:00  21.23110 -157.66572     291   8.7 Hikianalia
  2022-06-17T00:18:53UTC 2022-06-16T14:18:53-10:00 2022-06-16T13:18:53-11:00  21.20745 -157.62928     291   8.5 Hōkūleʻa
  2022-06-17T00:10:23UTC 2022-06-16T14:10:23-10:00 2022-06-16T13:10:23-11:00  21.18058 -157.52414     290   7.4 Hikianalia
  2022-06-16T23:09:16UTC 2022-06-16T13:09:16-10:00 2022-06-16T13:09:16-10:00  21.13674 -157.39840     300   6.9 Hikianalia
  2022-06-16T22:17:30UTC 2022-06-16T12:17:30-10:00 2022-06-16T12:17:30-10:00  21.10696 -157.34357     309   7.1 Hōkūleʻa
  2022-06-16T22:09:48UTC 2022-06-16T12:09:48-10:00 2022-06-16T12:09:48-10:00  21.08006 -157.29276     295   5.9 Hikianalia
  2022-06-16T21:18:35UTC 2022-06-16T11:18:35-10:00 2022-06-16T11:18:35-10:00  21.03454 -157.24693     292   6.8 Hōkūleʻa
  2022-06-16T21:09:20UTC 2022-06-16T11:09:20-10:00 2022-06-16T11:09:20-10:00  21.03766 -157.19680     295   5.8 Hikianalia
  2022-06-16T20:17:49UTC 2022-06-16T10:17:49-10:00 2022-06-16T10:17:49-10:00  20.99218 -157.13234     285   6.6 Hōkūleʻa
  2022-06-16T20:09:17UTC 2022-06-16T10:09:17-10:00 2022-06-16T10:09:17-10:00  20.99714 -157.10224     287   5.7 Hikianalia
  2022-06-16T19:17:32UTC 2022-06-16T09:17:32-10:00 2022-06-16T09:17:32-10:00  20.96261 -157.01806     289   6.1 Hōkūleʻa
  2022-06-16T19:10:11UTC 2022-06-16T09:10:11-10:00 2022-06-16T09:10:11-10:00  20.96939 -157.00664     290   7.9 Hikianalia
  2022-06-16T18:20:33UTC 2022-06-16T08:20:33-10:00 2022-06-16T08:20:33-10:00  20.93147 -156.89715     291   6.2 Hikianalia
  2022-06-16T18:18:40UTC 2022-06-16T08:18:40-10:00 2022-06-16T08:18:40-10:00  20.92941 -156.91796     292   7.2 Hōkūleʻa
  2022-06-16T17:18:40UTC 2022-06-16T07:18:40-10:00 2022-06-16T07:18:40-10:00  20.88395 -156.79859     287   6.2 Hōkūleʻa
  2022-06-16T17:10:19UTC 2022-06-16T07:10:19-10:00 2022-06-16T07:10:19-10:00  20.88805 -156.77608     294   5.7 Hikianalia
  2022-06-16T16:18:52UTC 2022-06-16T06:18:52-10:00 2022-06-16T06:18:52-10:00  20.85451 -156.69353     312   5.5 Hōkūleʻa
  2022-06-16T16:10:25UTC 2022-06-16T06:10:25-10:00 2022-06-16T06:10:25-10:00  20.84942 -156.68257     313   5.3 Hikianalia
  2022-06-16T15:18:41UTC 2022-06-16T05:18:41-10:00 2022-06-16T05:18:41-10:00  20.79261 -156.62000     308   4.9 Hōkūleʻa
  2022-06-16T15:09:11UTC 2022-06-16T05:09:11-10:00 2022-06-16T05:09:11-10:00  20.78716 -156.61193     308   5.0 Hikianalia
  2022-06-16T14:18:38UTC 2022-06-16T04:18:38-10:00 2022-06-16T04:18:38-10:00  20.74130 -156.55093     312   4.8 Hōkūleʻa
  2022-06-16T14:10:42UTC 2022-06-16T04:10:42-10:00 2022-06-16T04:10:42-10:00  20.73678 -156.54320     316   4.9 Hikianalia
  2022-06-16T13:18:32UTC 2022-06-16T03:18:32-10:00 2022-06-16T03:18:32-10:00  20.68766 -156.48711     336   6.3 Hōkūleʻa
  2022-06-16T13:10:11UTC 2022-06-16T03:10:11-10:00 2022-06-16T03:10:11-10:00  20.67766 -156.48207     337   6.3 Hikianalia
  2022-06-16T12:19:43UTC 2022-06-16T02:19:43-10:00 2022-06-16T02:19:43-10:00  20.59313 -156.44336     308   2.8 Hōkūleʻa
  2022-06-16T12:10:10UTC 2022-06-16T02:10:10-10:00 2022-06-16T02:10:10-10:00  20.58162 -156.43772     304   4.4 Hikianalia
  2022-06-16T11:18:49UTC 2022-06-16T01:18:49-10:00 2022-06-16T01:18:49-10:00  20.56334 -156.40313     304   7.7 Hōkūleʻa
  2022-06-16T11:10:16UTC 2022-06-16T01:10:16-10:00 2022-06-16T01:10:16-10:00  20.54141 -156.37330     304   7.8 Hikianalia
  2022-06-16T10:17:40UTC 2022-06-16T00:17:40-10:00 2022-06-16T00:17:40-10:00  20.49001 -156.28777     310   8.2 Hōkūleʻa
  2022-06-16T10:09:50UTC 2022-06-16T00:09:50-10:00 2022-06-16T00:09:50-10:00  20.46761 -156.25691     311   7.6 Hikianalia
  2022-06-16T09:18:33UTC 2022-06-15T23:18:33-10:00 2022-06-15T23:18:33-10:00  20.40370 -156.17722     316   8.0 Hōkūleʻa
  2022-06-16T09:10:12UTC 2022-06-15T23:10:12-10:00 2022-06-15T23:10:12-10:00  20.38553 -156.15535     316   8.0 Hikianalia
  2022-06-16T08:18:49UTC 2022-06-15T22:18:49-10:00 2022-06-15T22:18:49-10:00  20.30823 -156.07779     316   8.6 Hōkūleʻa
  2022-06-16T08:10:20UTC 2022-06-15T22:10:20-10:00 2022-06-15T22:10:20-10:00  20.28868 -156.05669     316   8.8 Hikianalia
  2022-06-16T07:18:33UTC 2022-06-15T21:18:33-10:00 2022-06-15T21:18:33-10:00  20.20446 -155.97213     312   5.0 Hōkūleʻa
  2022-06-16T07:10:19UTC 2022-06-15T21:10:19-10:00 2022-06-15T21:10:19-10:00  20.18271 -155.94889     314   3.5 Hikianalia
  2022-06-16T06:18:33UTC 2022-06-15T20:18:33-10:00 2022-06-15T20:18:33-10:00  20.14881 -155.90619     333   5.0 Hōkūleʻa
  2022-06-16T06:10:38UTC 2022-06-15T20:10:38-10:00 2022-06-15T20:10:38-10:00  20.14192 -155.90437     331   6.0 Hikianalia
  2022-06-16T05:18:30UTC 2022-06-15T19:18:30-10:00 2022-06-15T19:18:30-10:00  20.07444 -155.86596     326   3.7 Hōkūleʻa
  2022-06-16T05:10:10UTC 2022-06-15T19:10:10-10:00 2022-06-15T19:10:10-10:00  20.05351 -155.85214     335   1.3 Hikianalia
  2022-06-16T04:39:25UTC 2022-06-15T18:39:25-10:00 2022-06-15T18:39:25-10:00  20.04098 -155.84218      22   3.7 Hōkūleʻa
  2022-06-16T04:18:17UTC 2022-06-15T18:18:17-10:00 2022-06-15T18:18:17-10:00  20.03669 -155.84387      28   4.6 Hikianalia
  2022-06-16T03:18:33UTC 2022-06-15T17:18:33-10:00 2022-06-15T17:18:33-10:00  19.96426 -155.87540      40   7.0 Hōkūleʻa
  2022-06-16T03:09:46UTC 2022-06-15T17:09:46-10:00 2022-06-15T17:09:46-10:00  19.95928 -155.88741      41   6.5 Hikianalia
  2022-06-16T02:17:32UTC 2022-06-15T16:17:32-10:00 2022-06-15T16:17:32-10:00  19.87353 -155.95702      45   6.6 Hōkūleʻa
  2022-06-16T02:10:20UTC 2022-06-15T16:10:20-10:00 2022-06-15T16:10:20-10:00  19.87810 -155.96251      42   7.4 Hikianalia
  2022-06-16T01:17:43UTC 2022-06-15T15:17:43-10:00 2022-06-15T15:17:43-10:00  19.79583 -156.03976       1   7.7 Hōkūleʻa
  2022-06-16T01:09:11UTC 2022-06-15T15:09:11-10:00 2022-06-15T15:09:11-10:00  19.78337 -156.05154     353   8.0 Hikianalia
  2022-06-16T00:18:40UTC 2022-06-15T14:18:40-10:00 2022-06-15T14:18:40-10:00  19.66826 -156.04118     327   7.4 Hōkūleʻa
  2022-06-16T00:10:49UTC 2022-06-15T14:10:49-10:00 2022-06-15T14:10:49-10:00  19.65424 -156.03513     325   6.1 Hikianalia
  2022-06-15T23:17:35UTC 2022-06-15T13:17:35-10:00 2022-06-15T13:17:35-10:00  19.56229 -155.96850     277   0.4 Hōkūleʻa
  2022-06-15T23:09:17UTC 2022-06-15T13:09:17-10:00 2022-06-15T13:09:17-10:00  19.56905 -155.97234     309   0.7 Hikianalia
  2022-06-15T22:18:42UTC 2022-06-15T12:18:42-10:00 2022-06-15T12:18:42-10:00  19.56158 -155.96237     270   0.0 Hōkūleʻa
  2022-06-15T22:10:06UTC 2022-06-15T12:10:06-10:00 2022-06-15T12:10:06-10:00  19.56151 -155.96269     326   0.0 Hikianalia
  2022-06-15T07:18:43UTC 2022-06-14T21:18:43-10:00 2022-06-14T21:18:43-10:00  19.56158 -155.96232      75   0.0 Hōkūleʻa
  2022-06-15T07:10:12UTC 2022-06-14T21:10:12-10:00 2022-06-14T21:10:12-10:00  19.56136 -155.96258      62   0.0 Hikianalia
  2022-06-15T06:18:41UTC 2022-06-14T20:18:41-10:00 2022-06-14T20:18:41-10:00  19.56157 -155.96237      78   0.4 Hōkūleʻa
  2022-06-15T06:10:20UTC 2022-06-14T20:10:20-10:00 2022-06-14T20:10:20-10:00  19.56135 -155.96260      49   0.9 Hikianalia
  2022-06-15T05:18:32UTC 2022-06-14T19:18:32-10:00 2022-06-14T19:18:32-10:00  19.56030 -155.96852     344   6.6 Hōkūleʻa
  2022-06-15T05:10:17UTC 2022-06-14T19:10:17-10:00 2022-06-14T19:10:17-10:00  19.55141 -155.97447     339   5.7 Hikianalia
  2022-06-15T04:26:10UTC 2022-06-14T18:26:10-10:00 2022-06-14T18:26:10-10:00  19.46765 -155.94112     342   4.3 Hōkūleʻa
  2022-06-15T04:09:49UTC 2022-06-14T18:09:49-10:00 2022-06-14T18:09:49-10:00  19.46098 -155.93769     343   5.1 Hikianalia
  2022-06-15T03:18:33UTC 2022-06-14T17:18:33-10:00 2022-06-14T17:18:33-10:00  19.39039 -155.91428     356   5.5 Hōkūleʻa
  2022-06-15T03:10:12UTC 2022-06-14T17:10:12-10:00 2022-06-14T17:10:12-10:00  19.37920 -155.91205     356   6.2 Hikianalia
  2022-06-15T02:18:46UTC 2022-06-14T16:18:46-10:00 2022-06-14T16:18:46-10:00  19.29894 -155.90683       1   4.9 Hōkūleʻa
  2022-06-15T02:17:28UTC 2022-06-14T16:17:28-10:00 2022-06-14T16:17:28-10:00  19.28894 -155.90559       2   4.2 Hikianalia
  2022-06-15T01:18:32UTC 2022-06-14T15:18:32-10:00 2022-06-14T15:18:32-10:00  19.21693 -155.90784      11   3.9 Hōkūleʻa
  2022-06-15T01:09:20UTC 2022-06-14T15:09:20-10:00 2022-06-14T15:09:20-10:00  19.20845 -155.90923      12   3.8 Hikianalia
  2022-06-15T00:18:02UTC 2022-06-14T14:18:02-10:00 2022-06-14T14:18:02-10:00  19.15179 -155.92132     356   3.3 Hōkūleʻa
  2022-06-15T00:09:44UTC 2022-06-14T14:09:44-10:00 2022-06-14T14:09:44-10:00  19.14625 -155.92265     354   3.2 Hikianalia
  2022-06-14T23:18:30UTC 2022-06-14T13:18:30-10:00 2022-06-14T13:18:30-10:00  19.09723 -155.91767     351   2.6 Hōkūleʻa
  2022-06-14T23:10:09UTC 2022-06-14T13:10:09-10:00 2022-06-14T13:10:09-10:00  19.09309 -155.91629     351   2.6 Hikianalia
  2022-06-14T22:17:36UTC 2022-06-14T12:17:36-10:00 2022-06-14T12:17:36-10:00  19.05392 -155.91082     314   2.3 Hōkūleʻa
  2022-06-14T22:09:19UTC 2022-06-14T12:09:19-10:00 2022-06-14T12:09:19-10:00  19.04956 -155.90913     308   2.2 Hikianalia
  2022-06-14T21:17:24UTC 2022-06-14T11:17:24-10:00 2022-06-14T11:17:24-10:00  19.02715 -155.88213     297   5.5 Hōkūleʻa
  2022-06-14T21:09:19UTC 2022-06-14T11:09:19-10:00 2022-06-14T11:09:19-10:00  19.02705 -155.87920     308   6.7 Hikianalia
  2022-06-14T20:17:49UTC 2022-06-14T10:17:49-10:00 2022-06-14T10:17:49-10:00  18.98581 -155.79611     305   6.3 Hōkūleʻa
  2022-06-14T20:09:43UTC 2022-06-14T10:09:43-10:00 2022-06-14T10:09:43-10:00  18.95922 -155.78740     301   7.0 Hikianalia
  2022-06-14T19:18:33UTC 2022-06-14T09:18:33-10:00 2022-06-14T09:18:33-10:00  18.92622 -155.70582     266   5.3 Hōkūleʻa
  2022-06-14T19:10:12UTC 2022-06-14T09:10:12-10:00 2022-06-14T09:10:12-10:00  18.89872 -155.68264     236   7.7 Hikianalia
  2022-06-14T18:17:31UTC 2022-06-14T08:17:31-10:00 2022-06-14T08:17:31-10:00  18.93224 -155.61117     234   7.9 Hōkūleʻa
  2022-06-14T18:09:20UTC 2022-06-14T08:09:20-10:00 2022-06-14T08:09:20-10:00  18.97122 -155.56842     232   7.8 Hikianalia
  2022-06-14T17:18:30UTC 2022-06-14T07:18:30-10:00 2022-06-14T07:18:30-10:00  19.00911 -155.50036     247   7.5 Hōkūleʻa
  2022-06-14T17:10:09UTC 2022-06-14T07:10:09-10:00 2022-06-14T07:10:09-10:00  19.05091 -155.46259     265   7.2 Hikianalia
  2022-06-14T16:18:51UTC 2022-06-14T06:18:51-10:00 2022-06-14T06:18:51-10:00  19.05897 -155.37923     270   8.7 Hōkūleʻa
  2022-06-14T16:10:40UTC 2022-06-14T06:10:40-10:00 2022-06-14T06:10:40-10:00  19.06098 -155.33763     273   8.6 Hikianalia
  2022-06-14T15:18:39UTC 2022-06-14T05:18:39-10:00 2022-06-14T05:18:39-10:00  19.05820 -155.22619     274   8.4 Hōkūleʻa
  2022-06-14T15:10:20UTC 2022-06-14T05:10:20-10:00 2022-06-14T05:10:20-10:00  19.05313 -155.18609     275   9.0 Hikianalia
  2022-06-14T14:17:37UTC 2022-06-14T04:17:37-10:00 2022-06-14T04:17:37-10:00  19.04914 -155.07606     276   8.3 Hōkūleʻa
  2022-06-14T14:10:28UTC 2022-06-14T04:10:28-10:00 2022-06-14T04:10:28-10:00  19.03920 -155.02805     276   9.0 Hikianalia
  2022-06-14T13:18:32UTC 2022-06-14T03:18:32-10:00 2022-06-14T03:18:32-10:00  19.03477 -154.93313     279   9.5 Hōkūleʻa
  2022-06-14T13:10:20UTC 2022-06-14T03:10:20-10:00 2022-06-14T03:10:20-10:00  19.02360 -154.86944     280   8.5 Hikianalia
  2022-06-14T12:29:43UTC 2022-06-14T02:29:43-10:00 2022-06-14T02:29:43-10:00  19.01436 -154.79820     281   7.3 Hōkūleʻa
  2022-06-14T12:10:38UTC 2022-06-14T02:10:38-10:00 2022-06-14T02:10:38-10:00  18.99875 -154.72312     279   7.8 Hikianalia
  2022-06-14T11:18:39UTC 2022-06-14T01:18:39-10:00 2022-06-14T01:18:39-10:00  18.98751 -154.64946     278   7.1 Hōkūleʻa
  2022-06-14T11:10:14UTC 2022-06-14T01:10:14-10:00 2022-06-14T01:10:14-10:00  18.97728 -154.58699     279   7.7 Hikianalia
  2022-06-14T10:18:36UTC 2022-06-14T00:18:36-10:00 2022-06-14T00:18:36-10:00  18.96082 -154.47241     282   5.6 Hikianalia
  2022-06-14T10:17:36UTC 2022-06-14T00:17:36-10:00 2022-06-14T00:17:36-10:00  18.96969 -154.52363     283   6.6 Hōkūleʻa
  2022-06-14T09:18:32UTC 2022-06-13T23:18:32-10:00 2022-06-13T23:18:32-10:00  18.94513 -154.41318     276   6.2 Hōkūleʻa
  2022-06-14T09:10:10UTC 2022-06-13T23:10:10-10:00 2022-06-13T23:10:10-10:00  18.93861 -154.36317     277   5.2 Hikianalia
  2022-06-14T08:18:46UTC 2022-06-13T22:18:46-10:00 2022-06-13T22:18:46-10:00  18.93360 -154.30485     278   5.1 Hōkūleʻa
  2022-06-14T08:09:51UTC 2022-06-13T22:09:51-10:00 2022-06-13T22:09:51-10:00  18.92808 -154.27247     256   4.7 Hikianalia
  2022-06-14T07:18:26UTC 2022-06-13T21:18:26-10:00 2022-06-13T21:18:26-10:00  18.92196 -154.21597     258   6.3 Hōkūleʻa
  2022-06-14T07:10:13UTC 2022-06-13T21:10:13-10:00 2022-06-13T21:10:13-10:00  18.94735 -154.19348     271   6.1 Hikianalia
  2022-06-14T06:18:39UTC 2022-06-13T20:18:39-10:00 2022-06-13T20:18:39-10:00  18.94308 -154.10789     269   6.3 Hōkūleʻa
  2022-06-14T06:10:18UTC 2022-06-13T20:10:18-10:00 2022-06-13T20:10:18-10:00  18.94628 -154.08608     272   6.8 Hikianalia
  2022-06-14T05:18:40UTC 2022-06-13T19:18:40-10:00 2022-06-13T19:18:40-10:00  18.94499 -153.99688     281   6.7 Hōkūleʻa
  2022-06-14T05:10:17UTC 2022-06-13T19:10:17-10:00 2022-06-13T19:10:17-10:00  18.94144 -153.96702     283   7.4 Hikianalia
  2022-06-14T04:18:51UTC 2022-06-13T18:18:51-10:00 2022-06-13T18:18:51-10:00  18.92284 -153.88230     282   6.8 Hōkūleʻa
  2022-06-14T04:10:48UTC 2022-06-13T18:10:48-10:00 2022-06-13T18:10:48-10:00  18.91506 -153.84179     284   7.8 Hikianalia
  2022-06-14T03:17:41UTC 2022-06-13T17:17:41-10:00 2022-06-13T17:17:41-10:00  18.89947 -153.76310     286   6.3 Hōkūleʻa
  2022-06-14T03:10:21UTC 2022-06-13T17:10:21-10:00 2022-06-13T17:10:21-10:00  18.88304 -153.70864     283   5.9 Hikianalia
  2022-06-14T02:18:35UTC 2022-06-13T16:18:35-10:00 2022-06-13T16:18:35-10:00  18.87111 -153.65817     278   7.0 Hōkūleʻa
  2022-06-14T02:09:18UTC 2022-06-13T16:09:18-10:00 2022-06-13T16:09:18-10:00  18.86093 -153.60586     278   6.7 Hikianalia
  2022-06-14T01:17:40UTC 2022-06-13T15:17:40-10:00 2022-06-13T15:17:40-10:00  18.85372 -153.53486     273   6.9 Hōkūleʻa
  2022-06-14T01:10:11UTC 2022-06-13T15:10:11-10:00 2022-06-13T15:10:11-10:00  18.84547 -153.49108     266   6.2 Hikianalia
  2022-06-14T00:18:50UTC 2022-06-13T14:18:50-10:00 2022-06-13T14:18:50-10:00  18.84736 -153.41564     273   5.2 Hōkūleʻa
  2022-06-14T00:09:52UTC 2022-06-13T14:09:52-10:00 2022-06-13T14:09:52-10:00  18.85240 -153.38154     256   6.4 Hikianalia
  2022-06-13T23:17:30UTC 2022-06-13T13:17:30-10:00 2022-06-13T13:17:30-10:00  18.84254 -153.32253     260   5.6 Hōkūleʻa
  2022-06-13T23:10:18UTC 2022-06-13T13:10:18-10:00 2022-06-13T13:10:18-10:00  18.87770 -153.27378     268   5.0 Hikianalia
  2022-06-13T22:23:47UTC 2022-06-13T12:23:47-10:00 2022-06-13T12:23:47-10:00  18.85714 -153.23608     270   5.3 Hōkūleʻa
  2022-06-13T22:09:22UTC 2022-06-13T12:09:22-10:00 2022-06-13T12:09:22-10:00  18.88020 -153.18520     278   6.1 Hikianalia
  2022-06-13T21:17:35UTC 2022-06-13T11:17:35-10:00 2022-06-13T11:17:35-10:00  18.85698 -153.13358     284   6.3 Hōkūleʻa
  2022-06-13T21:10:19UTC 2022-06-13T11:10:19-10:00 2022-06-13T11:10:19-10:00  18.86548 -153.08144     285   5.9 Hikianalia
  2022-06-13T20:18:47UTC 2022-06-13T10:18:47-10:00 2022-06-13T10:18:47-10:00  18.83191 -153.02777     282   6.1 Hōkūleʻa
  2022-06-13T20:09:43UTC 2022-06-13T10:09:43-10:00 2022-06-13T10:09:43-10:00  18.83932 -152.97983     278   5.7 Hikianalia
  2022-06-13T19:17:32UTC 2022-06-13T09:17:32-10:00 2022-06-13T09:17:32-10:00  18.81103 -152.92063     279   6.1 Hōkūleʻa
  2022-06-13T19:09:21UTC 2022-06-13T09:09:21-10:00 2022-06-13T09:09:21-10:00  18.82675 -152.88027     286   6.0 Hikianalia
  2022-06-13T18:18:39UTC 2022-06-13T08:18:39-10:00 2022-06-13T08:18:39-10:00  18.79484 -152.81624     281   6.7 Hōkūleʻa
  2022-06-13T18:10:18UTC 2022-06-13T08:10:18-10:00 2022-06-13T08:10:18-10:00  18.79986 -152.77991     289   6.6 Hikianalia
  2022-06-13T17:18:38UTC 2022-06-13T07:18:38-10:00 2022-06-13T07:18:38-10:00  18.77409 -152.70005     294   6.8 Hōkūleʻa
  2022-06-13T17:10:21UTC 2022-06-13T07:10:21-10:00 2022-06-13T07:10:21-10:00  18.76462 -152.66949     301   6.4 Hikianalia
  2022-06-13T16:18:53UTC 2022-06-13T06:18:53-10:00 2022-06-13T06:18:53-10:00  18.72738 -152.59184     305   6.8 Hōkūleʻa
  2022-06-13T16:10:51UTC 2022-06-13T06:10:51-10:00 2022-06-13T06:10:51-10:00  18.71036 -152.57411     303   7.0 Hikianalia
  2022-06-13T15:18:41UTC 2022-06-13T05:18:41-10:00 2022-06-13T05:18:41-10:00  18.66176 -152.49302     304   7.1 Hōkūleʻa
  2022-06-13T15:10:20UTC 2022-06-13T05:10:20-10:00 2022-06-13T05:10:20-10:00  18.64543 -152.47002     304   7.3 Hikianalia
  2022-06-13T14:18:35UTC 2022-06-13T04:18:35-10:00 2022-06-13T04:18:35-10:00  18.59595 -152.38996     306   6.9 Hōkūleʻa
  2022-06-13T14:10:09UTC 2022-06-13T04:10:09-10:00 2022-06-13T04:10:09-10:00  18.57674 -152.36293     306   6.4 Hikianalia
  2022-06-13T13:18:35UTC 2022-06-13T03:18:35-10:00 2022-06-13T03:18:35-10:00  18.52931 -152.29212     316   7.2 Hōkūleʻa
  2022-06-13T13:10:19UTC 2022-06-13T03:10:19-10:00 2022-06-13T03:10:19-10:00  18.51433 -152.27235     324  12.0 Hikianalia
  2022-06-13T12:29:29UTC 2022-06-13T02:29:29-10:00 2022-06-13T02:29:29-10:00  18.40424 -152.18706     330   6.1 Hikianalia
  2022-06-13T12:18:50UTC 2022-06-13T02:18:50-10:00 2022-06-13T02:18:50-10:00  18.44252 -152.20487     330   6.8 Hōkūleʻa
  2022-06-13T11:18:37UTC 2022-06-13T01:18:37-10:00 2022-06-13T01:18:37-10:00  18.34364 -152.14550     328   6.9 Hōkūleʻa
  2022-06-13T11:10:17UTC 2022-06-13T01:10:17-10:00 2022-06-13T01:10:17-10:00  18.28750 -152.11709     325   7.3 Hikianalia
  2022-06-13T10:18:38UTC 2022-06-13T00:18:38-10:00 2022-06-13T00:18:38-10:00  18.24560 -152.08213     326   7.0 Hōkūleʻa
  2022-06-13T10:10:19UTC 2022-06-13T00:10:19-10:00 2022-06-13T00:10:19-10:00  18.18734 -152.04370     322   6.6 Hikianalia
  2022-06-13T09:18:24UTC 2022-06-12T23:18:24-10:00 2022-06-12T23:18:24-10:00  18.14773 -152.01276     322   7.3 Hōkūleʻa
  2022-06-13T09:10:20UTC 2022-06-12T23:10:20-10:00 2022-06-12T23:10:20-10:00  18.10051 -151.97379     321   6.6 Hikianalia
  2022-06-13T08:18:49UTC 2022-06-12T22:18:49-10:00 2022-06-12T22:18:49-10:00  18.05288 -151.93392     321   7.3 Hōkūleʻa
  2022-06-13T08:10:50UTC 2022-06-12T22:10:50-10:00 2022-06-12T22:10:50-10:00  18.01599 -151.90176     324   7.1 Hikianalia
  2022-06-13T07:18:37UTC 2022-06-12T21:18:37-10:00 2022-06-12T21:18:37-10:00  17.95667 -151.85386     325   7.2 Hōkūleʻa
  2022-06-13T07:09:30UTC 2022-06-12T21:09:30-10:00 2022-06-12T21:09:30-10:00  17.91721 -151.82721     323   7.8 Hikianalia
  2022-06-13T06:17:32UTC 2022-06-12T20:17:32-10:00 2022-06-12T20:17:32-10:00  17.85602 -151.77947     321   7.7 Hōkūleʻa
  2022-06-13T06:10:15UTC 2022-06-12T20:10:15-10:00 2022-06-12T20:10:15-10:00  17.81470 -151.74649     319   7.8 Hikianalia
  2022-06-13T05:18:29UTC 2022-06-12T19:18:29-10:00 2022-06-12T19:18:29-10:00  17.75712 -151.69555     318   7.7 Hōkūleʻa
  2022-06-13T05:10:16UTC 2022-06-12T19:10:16-10:00 2022-06-12T19:10:16-10:00  17.71725 -151.65686     320   8.3 Hikianalia
  2022-06-13T04:18:53UTC 2022-06-12T18:18:53-10:00 2022-06-12T18:18:53-10:00  17.66314 -151.60577     316   7.9 Hōkūleʻa
  2022-06-13T04:10:50UTC 2022-06-12T18:10:50-10:00 2022-06-12T18:10:50-10:00  17.61189 -151.56337     322   8.0 Hikianalia
  2022-06-13T03:18:40UTC 2022-06-12T17:18:40-10:00 2022-06-12T17:18:40-10:00  17.56687 -151.50983     328   8.6 Hōkūleʻa
  2022-06-13T03:10:20UTC 2022-06-12T17:10:20-10:00 2022-06-12T17:10:20-10:00  17.50514 -151.47728     328   7.7 Hikianalia
  2022-06-13T02:17:40UTC 2022-06-12T16:17:40-10:00 2022-06-12T16:17:40-10:00  17.44270 -151.42982     327   8.6 Hōkūleʻa
  2022-06-13T02:09:19UTC 2022-06-12T16:09:19-10:00 2022-06-12T16:09:19-10:00  17.39373 -151.40471     325   8.2 Hikianalia
  2022-06-13T01:18:27UTC 2022-06-12T15:18:27-10:00 2022-06-12T15:18:27-10:00  17.32473 -151.34867     321   8.0 Hōkūleʻa
  2022-06-13T01:10:11UTC 2022-06-12T15:10:11-10:00 2022-06-12T15:10:11-10:00  17.28335 -151.32407     319   7.8 Hikianalia
  2022-06-13T00:18:52UTC 2022-06-12T14:18:52-10:00 2022-06-12T14:18:52-10:00  17.22166 -151.26069     317   7.4 Hōkūleʻa
  2022-06-13T00:09:47UTC 2022-06-12T14:09:47-10:00 2022-06-12T14:09:47-10:00  17.18464 -151.23344     317   6.6 Hikianalia
  2022-06-12T23:17:38UTC 2022-06-12T13:17:38-10:00 2022-06-12T13:17:38-10:00  17.12906 -151.17153     319   5.7 Hōkūleʻa
  2022-06-12T23:10:18UTC 2022-06-12T13:10:18-10:00 2022-06-12T13:10:18-10:00  17.10513 -151.15550     320   6.2 Hikianalia
  2022-06-12T22:17:35UTC 2022-06-12T12:17:35-10:00 2022-06-12T12:17:35-10:00  17.05708 -151.10709     329   6.4 Hōkūleʻa
  2022-06-12T22:09:19UTC 2022-06-12T12:09:19-10:00 2022-06-12T12:09:19-10:00  17.02392 -151.08570     325   6.4 Hikianalia
  2022-06-12T21:18:33UTC 2022-06-12T11:18:33-10:00 2022-06-12T11:18:33-10:00  16.96621 -151.05120     319   6.9 Hōkūleʻa
  2022-06-12T21:09:12UTC 2022-06-12T11:09:12-10:00 2022-06-12T11:09:12-10:00  16.93604 -151.02174     326   7.5 Hikianalia
  2022-06-12T20:17:44UTC 2022-06-12T10:17:44-10:00 2022-06-12T10:17:44-10:00  16.87837 -150.97195     328   7.3 Hōkūleʻa
  2022-06-12T20:09:50UTC 2022-06-12T10:09:50-10:00 2022-06-12T10:09:50-10:00  16.83374 -150.94904     323   6.7 Hikianalia
  2022-06-12T19:18:41UTC 2022-06-12T09:18:41-10:00 2022-06-12T09:18:41-10:00  16.77710 -150.90498     325   6.7 Hōkūleʻa
  2022-06-12T19:10:17UTC 2022-06-12T09:10:17-10:00 2022-06-12T09:10:17-10:00  16.74489 -150.87999     323   6.7 Hikianalia
  2022-06-12T18:17:38UTC 2022-06-12T08:17:38-10:00 2022-06-12T08:17:38-10:00  16.68355 -150.83598     328   9.4 Hōkūleʻa
  2022-06-12T18:10:19UTC 2022-06-12T08:10:19-10:00 2022-06-12T08:10:19-10:00  16.65571 -150.81094     329   6.3 Hikianalia
  2022-06-12T17:34:13UTC 2022-06-12T07:34:13-10:00 2022-06-12T07:34:13-10:00  16.58613 -150.77396     320   5.8 Hōkūleʻa
  2022-06-12T17:10:17UTC 2022-06-12T07:10:17-10:00 2022-06-12T07:10:17-10:00  16.56617 -150.75469     320   7.6 Hikianalia
  2022-06-12T16:18:50UTC 2022-06-12T06:18:50-10:00 2022-06-12T06:18:50-10:00  16.49265 -150.69159     315   7.2 Hōkūleʻa
  2022-06-12T16:10:47UTC 2022-06-12T06:10:47-10:00 2022-06-12T06:10:47-10:00  16.46923 -150.67086     318   9.2 Hikianalia
  2022-06-12T15:20:04UTC 2022-06-12T05:20:04-10:00 2022-06-12T05:20:04-10:00  16.37263 -150.58072     320   6.3 Hikianalia
  2022-06-12T15:18:33UTC 2022-06-12T05:18:33-10:00 2022-06-12T05:18:33-10:00  16.40704 -150.60346     321   7.5 Hōkūleʻa
  2022-06-12T14:18:35UTC 2022-06-12T04:18:35-10:00 2022-06-12T04:18:35-10:00  16.31003 -150.52182     317   7.7 Hōkūleʻa
  2022-06-12T14:10:17UTC 2022-06-12T04:10:17-10:00 2022-06-12T04:10:17-10:00  16.27995 -150.49873     316   7.5 Hikianalia
  2022-06-12T13:18:34UTC 2022-06-12T03:18:34-10:00 2022-06-12T03:18:34-10:00  16.21555 -150.43156     316   7.7 Hōkūleʻa
  2022-06-12T13:10:19UTC 2022-06-12T03:10:19-10:00 2022-06-12T03:10:19-10:00  16.18847 -150.40869     317   7.9 Hikianalia
  2022-06-12T12:18:51UTC 2022-06-12T02:18:51-10:00 2022-06-12T02:18:51-10:00  16.12239 -150.33979     316   7.7 Hōkūleʻa
  2022-06-12T12:10:51UTC 2022-06-12T02:10:51-10:00 2022-06-12T02:10:51-10:00  16.09272 -150.31520     315   7.3 Hikianalia
  2022-06-12T11:18:30UTC 2022-06-12T01:18:30-10:00 2022-06-12T01:18:30-10:00  16.02940 -150.24529     320   7.8 Hōkūleʻa
  2022-06-12T11:10:09UTC 2022-06-12T01:10:09-10:00 2022-06-12T01:10:09-10:00  16.00561 -150.22540     320   8.2 Hikianalia
  2022-06-12T10:19:39UTC 2022-06-12T00:19:39-10:00 2022-06-12T00:19:39-10:00  15.93153 -150.16075     316   9.0 Hōkūleʻa
  2022-06-12T10:10:16UTC 2022-06-12T00:10:16-10:00 2022-06-12T00:10:16-10:00  15.90035 -150.13422     314   7.5 Hikianalia
  2022-06-12T09:28:01UTC 2022-06-11T23:28:01-10:00 2022-06-11T23:28:01-10:00  15.83839 -150.06764     319   6.6 Hōkūleʻa
  2022-06-12T09:10:19UTC 2022-06-11T23:10:19-10:00 2022-06-11T23:10:19-10:00  15.81424 -150.04058     324   8.1 Hikianalia
  2022-06-12T08:17:52UTC 2022-06-11T22:17:52-10:00 2022-06-11T22:17:52-10:00  15.73968 -149.98037     322   7.2 Hōkūleʻa
  2022-06-12T08:09:49UTC 2022-06-11T22:09:49-10:00 2022-06-11T22:09:49-10:00  15.70328 -149.95709     320   6.6 Hikianalia
  2022-06-12T07:18:27UTC 2022-06-11T21:18:27-10:00 2022-06-11T21:18:27-10:00  15.64575 -149.90536     324   7.0 Hōkūleʻa
  2022-06-12T07:10:11UTC 2022-06-11T21:10:11-10:00 2022-06-11T21:10:11-10:00  15.61923 -149.88390     326   7.1 Hikianalia
  2022-06-12T06:18:30UTC 2022-06-11T20:18:30-10:00 2022-06-11T20:18:30-10:00  15.55094 -149.83365     323   7.4 Hōkūleʻa
  2022-06-12T06:10:18UTC 2022-06-11T20:10:18-10:00 2022-06-11T20:10:18-10:00  15.52122 -149.81476     320   7.4 Hikianalia
  2022-06-12T05:18:36UTC 2022-06-11T19:18:36-10:00 2022-06-11T19:18:36-10:00  15.45291 -149.75730     321   7.7 Hōkūleʻa
  2022-06-12T05:10:20UTC 2022-06-11T19:10:20-10:00 2022-06-11T19:10:20-10:00  15.42718 -149.73221     326   8.5 Hikianalia
  2022-06-12T04:24:58UTC 2022-06-11T18:24:58-10:00 2022-06-11T18:24:58-10:00  15.36351 -149.68346     325   9.4 Hōkūleʻa
  2022-06-12T04:10:54UTC 2022-06-11T18:10:54-10:00 2022-06-11T18:10:54-10:00  15.31050 -149.65035     325   9.5 Hikianalia
  2022-06-12T03:18:33UTC 2022-06-11T17:18:33-10:00 2022-06-11T17:18:33-10:00  15.22090 -149.58160     328   8.6 Hōkūleʻa
  2022-06-12T03:10:18UTC 2022-06-11T17:10:18-10:00 2022-06-11T17:10:18-10:00  15.17827 -149.55611     326   7.8 Hikianalia
  2022-06-12T02:18:39UTC 2022-06-11T16:18:39-10:00 2022-06-11T16:18:39-10:00  15.09810 -149.50391     326   7.6 Hōkūleʻa
  2022-06-12T02:10:19UTC 2022-06-11T16:10:19-10:00 2022-06-11T16:10:19-10:00  15.07005 -149.48226     322   6.6 Hikianalia
  2022-06-12T01:18:40UTC 2022-06-11T15:18:40-10:00 2022-06-11T15:18:40-10:00  14.99171 -149.43093     320   6.4 Hōkūleʻa
  2022-06-12T01:09:20UTC 2022-06-11T15:09:20-10:00 2022-06-11T15:09:20-10:00  14.98122 -149.41144     317   6.6 Hikianalia
  2022-06-12T00:18:09UTC 2022-06-11T14:18:09-10:00 2022-06-11T14:18:09-10:00  14.90935 -149.35922     315   6.5 Hōkūleʻa
  2022-06-12T00:09:45UTC 2022-06-11T14:09:45-10:00 2022-06-11T14:09:45-10:00  14.90087 -149.33512     314   7.2 Hikianalia
  2022-06-11T23:17:40UTC 2022-06-11T13:17:40-10:00 2022-06-11T13:17:40-10:00  14.83136 -149.27995     305   7.4 Hōkūleʻa
  2022-06-11T23:10:16UTC 2022-06-11T13:10:16-10:00 2022-06-11T13:10:16-10:00  14.81791 -149.24734     304   7.4 Hikianalia
  2022-06-11T22:17:27UTC 2022-06-11T12:17:27-10:00 2022-06-11T12:17:27-10:00  14.76074 -149.17565     307   7.0 Hōkūleʻa
  2022-06-11T22:09:19UTC 2022-06-11T12:09:19-10:00 2022-06-11T12:09:19-10:00  14.74779 -149.13977     312   6.6 Hikianalia
  2022-06-11T21:17:32UTC 2022-06-11T11:17:32-10:00 2022-06-11T11:17:32-10:00  14.69079 -149.07954     318   9.4 Hōkūleʻa
  2022-06-11T21:09:12UTC 2022-06-11T11:09:12-10:00 2022-06-11T11:09:12-10:00  14.67356 -149.05623     321   7.5 Hikianalia
  2022-06-11T20:27:54UTC 2022-06-11T10:27:54-10:00 2022-06-11T10:27:54-10:00  14.59386 -148.98982     324   6.7 Hōkūleʻa
  2022-06-11T20:09:49UTC 2022-06-11T10:09:49-10:00 2022-06-11T10:09:49-10:00  14.57679 -148.97665     325   8.0 Hikianalia
  2022-06-11T19:18:43UTC 2022-06-11T09:18:43-10:00 2022-06-11T09:18:43-10:00  14.48806 -148.91193     326   7.5 Hōkūleʻa
  2022-06-11T19:09:12UTC 2022-06-11T09:09:12-10:00 2022-06-11T09:09:12-10:00  14.46632 -148.89747     325   8.0 Hikianalia
  2022-06-11T18:17:33UTC 2022-06-11T08:17:33-10:00 2022-06-11T08:17:33-10:00  14.38316 -148.83805     326   8.0 Hōkūleʻa
  2022-06-11T18:09:11UTC 2022-06-11T08:09:11-10:00 2022-06-11T08:09:11-10:00  14.35672 -148.81936     326   8.5 Hikianalia
  2022-06-11T17:18:31UTC 2022-06-11T07:18:31-10:00 2022-06-11T07:18:31-10:00  14.27493 -148.76244     327   7.9 Hōkūleʻa
  2022-06-11T17:10:11UTC 2022-06-11T07:10:11-10:00 2022-06-11T07:10:11-10:00  14.24149 -148.73903     327   6.8 Hikianalia
  2022-06-11T16:18:49UTC 2022-06-11T06:18:49-10:00 2022-06-11T06:18:49-10:00  14.16502 -148.68978     332   7.1 Hōkūleʻa
  2022-06-11T16:10:39UTC 2022-06-11T06:10:39-10:00 2022-06-11T06:10:39-10:00  14.14630 -148.67615     334   7.2 Hikianalia
  2022-06-11T15:18:37UTC 2022-06-11T05:18:37-10:00 2022-06-11T05:18:37-10:00  14.05963 -148.63303     325   7.5 Hōkūleʻa
  2022-06-11T15:10:19UTC 2022-06-11T05:10:19-10:00 2022-06-11T05:10:19-10:00  14.03697 -148.62234     323   8.4 Hikianalia
  2022-06-11T14:17:40UTC 2022-06-11T04:17:40-10:00 2022-06-11T04:17:40-10:00  13.95436 -148.55812     327   7.8 Hōkūleʻa
  2022-06-11T14:10:17UTC 2022-06-11T04:10:17-10:00 2022-06-11T04:10:17-10:00  13.92512 -148.53614     329   7.4 Hikianalia
  2022-06-11T13:18:27UTC 2022-06-11T03:18:27-10:00 2022-06-11T03:18:27-10:00  13.84584 -148.48664     330   7.5 Hōkūleʻa
  2022-06-11T13:10:11UTC 2022-06-11T03:10:11-10:00 2022-06-11T03:10:11-10:00  13.81922 -148.47001     332   7.6 Hikianalia
  2022-06-11T12:18:52UTC 2022-06-11T02:18:52-10:00 2022-06-11T02:18:52-10:00  13.73738 -148.42267     332   7.1 Hōkūleʻa
  2022-06-11T12:10:51UTC 2022-06-11T02:10:51-10:00 2022-06-11T02:10:51-10:00  13.70808 -148.41068     330   6.6 Hikianalia
  2022-06-11T11:18:39UTC 2022-06-11T01:18:39-10:00 2022-06-11T01:18:39-10:00  13.63148 -148.36545     328   6.7 Hōkūleʻa
  2022-06-11T11:09:17UTC 2022-06-11T01:09:17-10:00 2022-06-11T01:09:17-10:00  13.61063 -148.35274     328   7.1 Hikianalia
  2022-06-11T10:18:41UTC 2022-06-11T00:18:41-10:00 2022-06-11T00:18:41-10:00  13.53663 -148.30519     327   6.5 Hōkūleʻa
  2022-06-11T10:10:12UTC 2022-06-11T00:10:12-10:00 2022-06-11T00:10:12-10:00  13.51064 -148.29004     326   7.2 Hikianalia
  2022-06-11T09:18:41UTC 2022-06-10T23:18:41-10:00 2022-06-10T23:18:41-10:00  13.44520 -148.24466     327   7.1 Hōkūleʻa
  2022-06-11T09:10:12UTC 2022-06-10T23:10:12-10:00 2022-06-10T23:10:12-10:00  13.41104 -148.22196     329   8.2 Hikianalia
  2022-06-11T08:18:49UTC 2022-06-10T22:18:49-10:00 2022-06-10T22:18:49-10:00  13.34660 -148.17859     333   7.7 Hōkūleʻa
  2022-06-11T08:18:27UTC 2022-06-10T22:18:27-10:00 2022-06-10T22:18:27-10:00  13.30946 -148.16081     333   6.3 Hikianalia
  2022-06-11T07:18:39UTC 2022-06-10T21:18:39-10:00 2022-06-10T21:18:39-10:00  13.23171 -148.11918     336   6.8 Hōkūleʻa
  2022-06-11T07:10:20UTC 2022-06-10T21:10:20-10:00 2022-06-10T21:10:20-10:00  13.20313 -148.10652     336   6.0 Hikianalia
  2022-06-11T06:18:38UTC 2022-06-10T20:18:38-10:00 2022-06-10T20:18:38-10:00  13.12681 -148.07229     339   4.7 Hōkūleʻa
  2022-06-11T06:10:12UTC 2022-06-10T20:10:12-10:00 2022-06-10T20:10:12-10:00  13.11203 -148.06478     349   6.1 Hikianalia
  2022-06-11T05:18:36UTC 2022-06-10T19:18:36-10:00 2022-06-10T19:18:36-10:00  13.05332 -148.04384     348   5.6 Hōkūleʻa
  2022-06-11T05:10:16UTC 2022-06-10T19:10:16-10:00 2022-06-10T19:10:16-10:00  13.01222 -148.04448     355   7.3 Hikianalia
  2022-06-11T04:18:52UTC 2022-06-10T18:18:52-10:00 2022-06-10T18:18:52-10:00  12.96230 -148.02376     355   6.7 Hōkūleʻa
  2022-06-11T04:09:50UTC 2022-06-10T18:09:50-10:00 2022-06-10T18:09:50-10:00  12.88961 -148.03352     355   6.2 Hikianalia
  2022-06-11T03:18:41UTC 2022-06-10T17:18:41-10:00 2022-06-10T17:18:41-10:00  12.85059 -148.01313     353   6.7 Hōkūleʻa
  2022-06-11T03:10:21UTC 2022-06-10T17:10:21-10:00 2022-06-10T17:10:21-10:00  12.78687 -148.02485     346   6.6 Hikianalia
  2022-06-11T02:18:42UTC 2022-06-10T16:18:42-10:00 2022-06-10T16:18:42-10:00  12.73939 -147.99856     348   6.6 Hōkūleʻa
  2022-06-11T02:09:14UTC 2022-06-10T16:09:14-10:00 2022-06-10T16:09:14-10:00  12.67849 -147.99719     344   7.1 Hikianalia
  2022-06-11T01:17:40UTC 2022-06-10T15:17:40-10:00 2022-06-10T15:17:40-10:00  12.62858 -147.97479     345   7.1 Hōkūleʻa
  2022-06-11T01:10:11UTC 2022-06-10T15:10:11-10:00 2022-06-10T15:10:11-10:00  12.56657 -147.96511     346   6.8 Hikianalia
  2022-06-11T00:17:41UTC 2022-06-10T14:17:41-10:00 2022-06-10T14:17:41-10:00  12.51314 -147.94325     347   6.3 Hōkūleʻa
  2022-06-11T00:09:52UTC 2022-06-10T14:09:52-10:00 2022-06-10T14:09:52-10:00  12.45560 -147.93621     340   5.3 Hikianalia
  2022-06-10T23:18:30UTC 2022-06-10T13:18:30-10:00 2022-06-10T13:18:30-10:00  12.41166 -147.92001     323   6.2 Hōkūleʻa
  2022-06-10T23:09:08UTC 2022-06-10T13:09:08-10:00 2022-06-10T13:09:08-10:00  12.37158 -147.90475     315   8.4 Hikianalia
  2022-06-10T22:25:54UTC 2022-06-10T12:25:54-10:00 2022-06-10T12:25:54-10:00  12.30024 -147.83235     311   4.6 Hikianalia
  2022-06-10T22:17:30UTC 2022-06-10T12:17:30-10:00 2022-06-10T12:17:30-10:00  12.32769 -147.85574     318   6.7 Hōkūleʻa
  2022-06-10T21:18:39UTC 2022-06-10T11:18:39-10:00 2022-06-10T11:18:39-10:00  12.24598 -147.78066     327   5.2 Hōkūleʻa
  2022-06-10T21:10:18UTC 2022-06-10T11:10:18-10:00 2022-06-10T11:10:18-10:00  12.23666 -147.75760     332   5.3 Hikianalia
  2022-06-10T20:24:56UTC 2022-06-10T10:24:56-10:00 2022-06-10T10:24:56-10:00  12.17989 -147.73730     331   5.1 Hōkūleʻa
  2022-06-10T20:09:48UTC 2022-06-10T10:09:48-10:00 2022-06-10T10:09:48-10:00  12.15813 -147.71442     334   6.8 Hikianalia
  2022-06-10T19:17:37UTC 2022-06-10T09:17:37-10:00 2022-06-10T09:17:37-10:00  12.09688 -147.69035     336   6.1 Hōkūleʻa
  2022-06-10T19:09:19UTC 2022-06-10T09:09:19-10:00 2022-06-10T09:09:19-10:00  12.05468 -147.66355     339   5.1 Hikianalia
  2022-06-10T18:18:32UTC 2022-06-10T08:18:32-10:00 2022-06-10T08:18:32-10:00  12.00522 -147.64934     330   6.4 Hōkūleʻa
  2022-06-10T18:09:11UTC 2022-06-10T08:09:11-10:00 2022-06-10T08:09:11-10:00  11.97460 -147.63310     327   5.6 Hikianalia
  2022-06-10T17:18:35UTC 2022-06-10T07:18:35-10:00 2022-06-10T07:18:35-10:00  11.91245 -147.59600     324   5.3 Hōkūleʻa
  2022-06-10T17:10:11UTC 2022-06-10T07:10:11-10:00 2022-06-10T07:10:11-10:00  11.89727 -147.58179     319   6.4 Hikianalia
  2022-06-10T16:19:08UTC 2022-06-10T06:19:08-10:00 2022-06-10T06:19:08-10:00  11.84087 -147.54302     320   6.9 Hōkūleʻa
  2022-06-10T16:10:49UTC 2022-06-10T06:10:49-10:00 2022-06-10T06:10:49-10:00  11.81825 -147.51122     326   6.5 Hikianalia
  2022-06-10T15:18:40UTC 2022-06-10T05:18:40-10:00 2022-06-10T05:18:40-10:00  11.75105 -147.46719     327   7.5 Hōkūleʻa
  2022-06-10T15:10:12UTC 2022-06-10T05:10:12-10:00 2022-06-10T05:10:12-10:00  11.72663 -147.44905     327   7.6 Hikianalia
  2022-06-10T14:18:32UTC 2022-06-10T04:18:32-10:00 2022-06-10T04:18:32-10:00  11.64591 -147.39689     326   7.7 Hōkūleʻa
  2022-06-10T14:09:17UTC 2022-06-10T04:09:17-10:00 2022-06-10T04:09:17-10:00  11.61758 -147.37739     327   8.2 Hikianalia
  2022-06-10T13:18:36UTC 2022-06-10T03:18:36-10:00 2022-06-10T03:18:36-10:00  11.53825 -147.32447     326   7.9 Hōkūleʻa
  2022-06-10T13:10:11UTC 2022-06-10T03:10:11-10:00 2022-06-10T03:10:11-10:00  11.50395 -147.30185     327   8.2 Hikianalia
  2022-06-10T12:19:02UTC 2022-06-10T02:19:02-10:00 2022-06-10T02:19:02-10:00  11.42884 -147.24989     327   8.0 Hōkūleʻa
  2022-06-10T12:10:48UTC 2022-06-10T02:10:48-10:00 2022-06-10T02:10:48-10:00  11.38967 -147.22641     328   7.9 Hikianalia
  2022-06-10T11:18:30UTC 2022-06-10T01:18:30-10:00 2022-06-10T01:18:30-10:00  11.31486 -147.17532     330   8.7 Hōkūleʻa
  2022-06-10T11:10:26UTC 2022-06-10T01:10:26-10:00 2022-06-10T01:10:26-10:00  11.27610 -147.15455     331   8.3 Hikianalia
  2022-06-10T10:18:32UTC 2022-06-10T00:18:32-10:00 2022-06-10T00:18:32-10:00  11.18933 -147.10105     326   8.6 Hōkūleʻa
  2022-06-10T10:10:28UTC 2022-06-10T00:10:28-10:00 2022-06-10T00:10:28-10:00  11.15479 -147.08721     327   8.7 Hikianalia
  2022-06-10T09:18:40UTC 2022-06-09T23:18:40-10:00 2022-06-09T23:18:40-10:00  11.06988 -147.02022     326   8.2 Hōkūleʻa
  2022-06-10T09:10:12UTC 2022-06-09T23:10:12-10:00 2022-06-09T23:10:12-10:00  11.03262 -147.00561     324   8.2 Hikianalia
  2022-06-10T08:18:52UTC 2022-06-09T22:18:52-10:00 2022-06-09T22:18:52-10:00  10.95687 -146.94295     325   7.8 Hōkūleʻa
  2022-06-10T08:09:51UTC 2022-06-09T22:09:51-10:00 2022-06-09T22:09:51-10:00  10.92013 -146.92401     323   8.3 Hikianalia
  2022-06-10T07:17:42UTC 2022-06-09T21:17:42-10:00 2022-06-09T21:17:42-10:00  10.84767 -146.86453     325   7.9 Hōkūleʻa
  2022-06-10T07:10:12UTC 2022-06-09T21:10:12-10:00 2022-06-09T21:10:12-10:00  10.81047 -146.84002     327   7.3 Hikianalia
  2022-06-10T06:18:32UTC 2022-06-09T20:18:32-10:00 2022-06-09T20:18:32-10:00  10.74072 -146.79011     321   7.6 Hōkūleʻa
  2022-06-10T06:10:19UTC 2022-06-09T20:10:19-10:00 2022-06-09T20:10:19-10:00  10.70906 -146.77286     317  12.1 Hikianalia
  2022-06-10T05:30:28UTC 2022-06-09T19:30:28-10:00 2022-06-09T19:30:28-10:00  10.61144 -146.68003     313   5.9 Hikianalia
  2022-06-10T05:18:30UTC 2022-06-09T19:18:30-10:00 2022-06-09T19:18:30-10:00  10.64167 -146.70801     312   7.8 Hōkūleʻa
  2022-06-10T04:18:51UTC 2022-06-09T18:18:51-10:00 2022-06-09T18:18:51-10:00  10.55403 -146.61120     315   7.3 Hōkūleʻa
  2022-06-10T04:10:49UTC 2022-06-09T18:10:49-10:00 2022-06-09T18:10:49-10:00  10.52089 -146.58281     314   7.3 Hikianalia
  2022-06-10T03:18:49UTC 2022-06-09T17:18:49-10:00 2022-06-09T17:18:49-10:00  10.46804 -146.52277     314   8.2 Hōkūleʻa
  2022-06-10T03:10:20UTC 2022-06-09T17:10:20-10:00 2022-06-09T17:10:20-10:00  10.43575 -146.49361     314   8.2 Hikianalia
  2022-06-10T02:18:40UTC 2022-06-09T16:18:40-10:00 2022-06-09T16:18:40-10:00  10.37320 -146.42190     313   7.5 Hōkūleʻa
  2022-06-10T02:10:20UTC 2022-06-09T16:10:20-10:00 2022-06-09T16:10:20-10:00  10.34079 -146.39385     309   6.3 Hikianalia
  2022-06-10T01:18:30UTC 2022-06-09T15:18:30-10:00 2022-06-09T15:18:30-10:00  10.28769 -146.32963     289   2.8 Hōkūleʻa
  2022-06-10T01:09:12UTC 2022-06-09T15:09:12-10:00 2022-06-09T15:09:12-10:00  10.27308 -146.30935     289   3.0 Hikianalia
  2022-06-10T00:17:42UTC 2022-06-09T14:17:42-10:00 2022-06-09T14:17:42-10:00  10.27239 -146.28489     303   4.1 Hōkūleʻa
  2022-06-10T00:09:51UTC 2022-06-09T14:09:51-10:00 2022-06-09T14:09:51-10:00  10.25691 -146.26144     315   4.8 Hikianalia
  2022-06-09T23:17:38UTC 2022-06-09T13:17:38-10:00 2022-06-09T13:17:38-10:00  10.23500 -146.22571     324   7.0 Hōkūleʻa
  2022-06-09T23:09:09UTC 2022-06-09T13:09:09-10:00 2022-06-09T13:09:09-10:00  10.19870 -146.20350     323   8.5 Hikianalia
  2022-06-09T22:20:25UTC 2022-06-09T12:20:25-10:00 2022-06-09T12:20:25-10:00  10.10625 -146.13248     326   5.9 Hikianalia
  2022-06-09T22:17:58UTC 2022-06-09T12:17:58-10:00 2022-06-09T12:17:58-10:00  10.14164 -146.15629     325   7.0 Hōkūleʻa
  2022-06-09T21:17:40UTC 2022-06-09T11:17:40-10:00 2022-06-09T11:17:40-10:00  10.04444 -146.08829     326   7.0 Hōkūleʻa
  2022-06-09T21:09:18UTC 2022-06-09T11:09:18-10:00 2022-06-09T11:09:18-10:00  10.00981 -146.06709     325   6.5 Hikianalia
  2022-06-09T20:17:52UTC 2022-06-09T10:17:52-10:00 2022-06-09T10:17:52-10:00   9.94764 -146.02246     323   7.1 Hōkūleʻa
  2022-06-09T20:09:41UTC 2022-06-09T10:09:41-10:00 2022-06-09T10:09:41-10:00   9.92113 -146.00551     322   7.0 Hikianalia
  2022-06-09T19:18:33UTC 2022-06-09T09:18:33-10:00 2022-06-09T09:18:33-10:00   9.85346 -145.95032     321   6.4 Hōkūleʻa
  2022-06-09T19:09:13UTC 2022-06-09T09:09:13-10:00 2022-06-09T09:09:13-10:00   9.82905 -145.93217     319   7.5 Hikianalia
  2022-06-09T18:18:47UTC 2022-06-09T08:18:47-10:00 2022-06-09T08:18:47-10:00   9.77028 -145.88295     314   7.6 Hōkūleʻa
  2022-06-09T18:10:19UTC 2022-06-09T08:10:19-10:00 2022-06-09T08:10:19-10:00   9.73639 -145.84973     314   7.8 Hikianalia
  2022-06-09T17:18:39UTC 2022-06-09T07:18:39-10:00 2022-06-09T07:18:39-10:00   9.68117 -145.78982     313   7.8 Hōkūleʻa
  2022-06-09T17:10:18UTC 2022-06-09T07:10:18-10:00 2022-06-09T07:10:18-10:00   9.64518 -145.75489     312   7.9 Hikianalia
  2022-06-09T16:18:49UTC 2022-06-09T06:18:49-10:00 2022-06-09T06:18:49-10:00   9.59218 -145.69352     310   8.0 Hōkūleʻa
  2022-06-09T16:10:47UTC 2022-06-09T06:10:47-10:00 2022-06-09T06:10:47-10:00   9.55770 -145.65691     310   9.1 Hikianalia
  2022-06-09T15:21:24UTC 2022-06-09T05:21:24-10:00 2022-06-09T05:21:24-10:00   9.47708 -145.55943     313   5.2 Hikianalia
  2022-06-09T15:19:41UTC 2022-06-09T05:19:41-10:00 2022-06-09T05:19:41-10:00   9.50733 -145.59206     311   7.3 Hōkūleʻa
  2022-06-09T14:18:36UTC 2022-06-09T04:18:36-10:00 2022-06-09T04:18:36-10:00   9.42601 -145.49823     320   6.0 Hōkūleʻa
  2022-06-09T14:10:19UTC 2022-06-09T04:10:19-10:00 2022-06-09T04:10:19-10:00   9.40579 -145.48347     325   6.2 Hikianalia
  2022-06-09T13:18:35UTC 2022-06-09T03:18:35-10:00 2022-06-09T03:18:35-10:00   9.34989 -145.43323     330   6.2 Hōkūleʻa
  2022-06-09T13:10:12UTC 2022-06-09T03:10:12-10:00 2022-06-09T03:10:12-10:00   9.32083 -145.42300     327   6.5 Hikianalia
  2022-06-09T12:28:09UTC 2022-06-09T02:28:09-10:00 2022-06-09T02:28:09-10:00   9.27415 -145.38850     319   5.2 Hōkūleʻa
  2022-06-09T12:09:53UTC 2022-06-09T02:09:53-10:00 2022-06-09T02:09:53-10:00   9.22978 -145.36324     317   7.4 Hikianalia
  2022-06-09T11:18:35UTC 2022-06-09T01:18:35-10:00 2022-06-09T01:18:35-10:00   9.19706 -145.32191     320   6.8 Hōkūleʻa
  2022-06-09T11:10:09UTC 2022-06-09T01:10:09-10:00 2022-06-09T01:10:09-10:00   9.13959 -145.27885     318   6.3 Hikianalia
  2022-06-09T10:18:33UTC 2022-06-09T00:18:33-10:00 2022-06-09T00:18:33-10:00   9.10930 -145.24833     316   6.7 Hōkūleʻa
  2022-06-09T10:10:20UTC 2022-06-09T00:10:20-10:00 2022-06-09T00:10:20-10:00   9.06172 -145.20759     317   8.4 Hikianalia
  2022-06-09T09:28:43UTC 2022-06-08T23:28:43-10:00 2022-06-08T23:28:43-10:00   8.99035 -145.14017     322   4.8 Hikianalia
  2022-06-09T09:17:41UTC 2022-06-08T23:17:41-10:00 2022-06-08T23:17:41-10:00   9.02635 -145.16879     321   6.9 Hōkūleʻa
  2022-06-09T08:18:43UTC 2022-06-08T22:18:43-10:00 2022-06-08T22:18:43-10:00   8.93728 -145.09721     321   7.5 Hōkūleʻa
  2022-06-09T08:10:45UTC 2022-06-08T22:10:45-10:00 2022-06-08T22:10:45-10:00   8.90769 -145.07536     321   8.4 Hikianalia
  2022-06-09T07:19:51UTC 2022-06-08T21:19:51-10:00 2022-06-08T21:19:51-10:00   8.81493 -145.00039     326   6.6 Hikianalia
  2022-06-09T07:18:27UTC 2022-06-08T21:18:27-10:00 2022-06-08T21:18:27-10:00   8.83933 -145.01827     325   7.4 Hōkūleʻa
  2022-06-09T06:18:33UTC 2022-06-08T20:18:33-10:00 2022-06-08T20:18:33-10:00   8.73760 -144.94636     326   7.3 Hōkūleʻa
  2022-06-09T06:10:18UTC 2022-06-08T20:10:18-10:00 2022-06-08T20:10:18-10:00   8.70893 -144.92924     325   7.3 Hikianalia
  2022-06-09T05:18:42UTC 2022-06-08T19:18:42-10:00 2022-06-08T19:18:42-10:00   8.63596 -144.87750     328   8.8 Hōkūleʻa
  2022-06-09T05:10:19UTC 2022-06-08T19:10:19-10:00 2022-06-08T19:10:19-10:00   8.60867 -144.85866     330   7.7 Hikianalia
  2022-06-09T04:29:25UTC 2022-06-08T18:29:25-10:00 2022-06-08T18:29:25-10:00   8.53317 -144.81287     328   6.3 Hōkūleʻa
  2022-06-09T04:10:48UTC 2022-06-08T18:10:48-10:00 2022-06-08T18:10:48-10:00   8.49843 -144.79416     327   7.3 Hikianalia
  2022-06-09T03:18:40UTC 2022-06-08T17:18:40-10:00 2022-06-08T17:18:40-10:00   8.42858 -144.74659     322   6.7 Hōkūleʻa
  2022-06-09T03:10:19UTC 2022-06-08T17:10:19-10:00 2022-06-08T17:10:19-10:00   8.39514 -144.72575     322   7.3 Hikianalia
  2022-06-09T02:17:40UTC 2022-06-08T16:17:40-10:00 2022-06-08T16:17:40-10:00   8.33957 -144.67586     325   6.8 Hōkūleʻa
  2022-06-09T02:09:19UTC 2022-06-08T16:09:19-10:00 2022-06-08T16:09:19-10:00   8.29799 -144.64913     323   7.4 Hikianalia
  2022-06-09T01:18:42UTC 2022-06-08T15:18:42-10:00 2022-06-08T15:18:42-10:00   8.24721 -144.61128     319   8.1 Hōkūleʻa
  2022-06-09T01:10:11UTC 2022-06-08T15:10:11-10:00 2022-06-08T15:10:11-10:00   8.20042 -144.57493     320   6.9 Hikianalia
  2022-06-09T00:28:14UTC 2022-06-08T14:28:14-10:00 2022-06-08T14:28:14-10:00   8.16079 -144.53716     331   6.0 Hōkūleʻa
  2022-06-09T00:09:51UTC 2022-06-08T14:09:51-10:00 2022-06-08T14:09:51-10:00   8.11152 -144.49946     332   6.5 Hikianalia
  2022-06-08T23:17:35UTC 2022-06-08T13:17:35-10:00 2022-06-08T13:17:35-10:00   8.05757 -144.47916     333   6.7 Hōkūleʻa
  2022-06-08T23:09:17UTC 2022-06-08T13:09:17-10:00 2022-06-08T13:09:17-10:00   8.01381 -144.44833     333   6.3 Hikianalia
  2022-06-08T22:18:36UTC 2022-06-08T12:18:36-10:00 2022-06-08T12:18:36-10:00   7.95857 -144.42917     342   7.0 Hōkūleʻa
  2022-06-08T22:10:11UTC 2022-06-08T12:10:11-10:00 2022-06-08T12:10:11-10:00   7.92087 -144.40153     341   6.9 Hikianalia
  2022-06-08T21:17:41UTC 2022-06-08T11:17:41-10:00 2022-06-08T11:17:41-10:00   7.84640 -144.39164     339   7.3 Hōkūleʻa
  2022-06-08T21:09:11UTC 2022-06-08T11:09:11-10:00 2022-06-08T11:09:11-10:00   7.80932 -144.36258     338   7.1 Hikianalia
  2022-06-08T20:18:49UTC 2022-06-08T10:18:49-10:00 2022-06-08T10:18:49-10:00   7.73407 -144.34786     336   7.0 Hōkūleʻa
  2022-06-08T20:09:49UTC 2022-06-08T10:09:49-10:00 2022-06-08T10:09:49-10:00   7.70103 -144.31838     334   6.7 Hikianalia
  2022-06-08T19:17:40UTC 2022-06-08T09:17:40-10:00 2022-06-08T09:17:40-10:00   7.62497 -144.29812     340   5.4 Hōkūleʻa
  2022-06-08T19:09:11UTC 2022-06-08T09:09:11-10:00 2022-06-08T09:09:11-10:00   7.59883 -144.26757     345   5.7 Hikianalia
  2022-06-08T18:18:38UTC 2022-06-08T08:18:38-10:00 2022-06-08T08:18:38-10:00   7.54084 -144.26759     337   5.4 Hōkūleʻa
  2022-06-08T18:10:11UTC 2022-06-08T08:10:11-10:00 2022-06-08T08:10:11-10:00   7.50890 -144.24296     333   6.8 Hikianalia
  2022-06-08T17:17:28UTC 2022-06-08T07:17:28-10:00 2022-06-08T07:17:28-10:00   7.45560 -144.23214     334   6.6 Hōkūleʻa
  2022-06-08T17:10:15UTC 2022-06-08T07:10:15-10:00 2022-06-08T07:10:15-10:00   7.40756 -144.19099     339   7.0 Hikianalia
  2022-06-08T16:18:44UTC 2022-06-08T06:18:44-10:00 2022-06-08T06:18:44-10:00   7.35821 -144.18440     340   5.1 Hōkūleʻa
  2022-06-08T16:10:40UTC 2022-06-08T06:10:40-10:00 2022-06-08T06:10:40-10:00   7.29908 -144.15000     338   6.0 Hikianalia
  2022-06-08T15:18:33UTC 2022-06-08T05:18:33-10:00 2022-06-08T05:18:33-10:00   7.27769 -144.15571     329   5.2 Hōkūleʻa
  2022-06-08T15:10:12UTC 2022-06-08T05:10:12-10:00 2022-06-08T05:10:12-10:00   7.20526 -144.11189     343   5.6 Hikianalia
  2022-06-08T14:18:35UTC 2022-06-08T04:18:35-10:00 2022-06-08T04:18:35-10:00   7.20251 -144.11069     345   5.7 Hōkūleʻa
  2022-06-08T14:09:26UTC 2022-06-08T04:09:26-10:00 2022-06-08T04:09:26-10:00   7.11376 -144.08361     355   6.4 Hikianalia
  2022-06-08T13:18:36UTC 2022-06-08T03:18:36-10:00 2022-06-08T03:18:36-10:00   7.11052 -144.08655       0   6.6 Hōkūleʻa
  2022-06-08T13:10:07UTC 2022-06-08T03:10:07-10:00 2022-06-08T03:10:07-10:00   7.00775 -144.07460     357   5.5 Hikianalia
  2022-06-08T12:18:50UTC 2022-06-08T02:18:50-10:00 2022-06-08T02:18:50-10:00   6.99970 -144.08726       5   5.2 Hōkūleʻa
  2022-06-08T12:10:41UTC 2022-06-08T02:10:41-10:00 2022-06-08T02:10:41-10:00   6.91736 -144.06992      11   4.0 Hikianalia
  2022-06-08T11:18:37UTC 2022-06-08T01:18:37-10:00 2022-06-08T01:18:37-10:00   6.91184 -144.09483       3   5.5 Hōkūleʻa
  2022-06-08T11:10:09UTC 2022-06-08T01:10:09-10:00 2022-06-08T01:10:09-10:00   6.85136 -144.08273       8   6.4 Hikianalia
  2022-06-08T10:18:35UTC 2022-06-08T00:18:35-10:00 2022-06-08T00:18:35-10:00   6.81925 -144.10022       7   6.7 Hōkūleʻa
  2022-06-08T10:09:20UTC 2022-06-08T00:09:20-10:00 2022-06-08T00:09:20-10:00   6.74388 -144.09717       3   7.0 Hikianalia
  2022-06-08T09:18:30UTC 2022-06-07T23:18:30-10:00 2022-06-07T23:18:30-10:00   6.70840 -144.11423       4   6.4 Hōkūleʻa
  2022-06-08T09:10:11UTC 2022-06-07T23:10:11-10:00 2022-06-07T23:10:11-10:00   6.62920 -144.10237      16   4.9 Hikianalia
  2022-06-08T08:18:52UTC 2022-06-07T22:18:52-10:00 2022-06-07T22:18:52-10:00   6.60129 -144.12131      13   7.2 Hōkūleʻa
  2022-06-08T08:10:50UTC 2022-06-07T22:10:50-10:00 2022-06-07T22:10:50-10:00   6.55162 -144.12500      13   7.2 Hikianalia
  2022-06-08T07:18:37UTC 2022-06-07T21:18:37-10:00 2022-06-07T21:18:37-10:00   6.48385 -144.14936      14   7.0 Hōkūleʻa
  2022-06-08T07:10:26UTC 2022-06-07T21:10:26-10:00 2022-06-07T21:10:26-10:00   6.43378 -144.15292      17   6.0 Hikianalia
  2022-06-08T06:18:38UTC 2022-06-07T20:18:38-10:00 2022-06-07T20:18:38-10:00   6.36985 -144.17807      14   3.4 Hōkūleʻa
  2022-06-08T06:10:12UTC 2022-06-07T20:10:12-10:00 2022-06-07T20:10:12-10:00   6.33686 -144.18242      22   3.0 Hikianalia
  2022-06-08T05:18:30UTC 2022-06-07T19:18:30-10:00 2022-06-07T19:18:30-10:00   6.31517 -144.19215      25   4.1 Hōkūleʻa
  2022-06-08T05:10:09UTC 2022-06-07T19:10:09-10:00 2022-06-07T19:10:09-10:00   6.29089 -144.20099       9   4.3 Hikianalia
  2022-06-08T04:18:52UTC 2022-06-07T18:18:52-10:00 2022-06-07T18:18:52-10:00   6.25354 -144.22131       6   3.3 Hōkūleʻa
  2022-06-08T04:10:54UTC 2022-06-07T18:10:54-10:00 2022-06-07T18:10:54-10:00   6.21998 -144.21249      14   4.6 Hikianalia
  2022-06-08T03:25:45UTC 2022-06-07T17:25:45-10:00 2022-06-07T17:25:45-10:00   6.20521 -144.22611      22   4.4 Hōkūleʻa
  2022-06-08T03:09:18UTC 2022-06-07T17:09:18-10:00 2022-06-07T17:09:18-10:00   6.14305 -144.23109      23   6.0 Hikianalia
  2022-06-08T02:18:40UTC 2022-06-07T16:18:40-10:00 2022-06-07T16:18:40-10:00   6.12956 -144.25729      18   5.0 Hōkūleʻa
  2022-06-08T02:10:16UTC 2022-06-07T16:10:16-10:00 2022-06-07T16:10:16-10:00   6.05250 -144.26879      28   5.8 Hikianalia
  2022-06-08T01:17:40UTC 2022-06-07T15:17:40-10:00 2022-06-07T15:17:40-10:00   6.04765 -144.28340      27   6.2 Hōkūleʻa
  2022-06-08T01:10:19UTC 2022-06-07T15:10:19-10:00 2022-06-07T15:10:19-10:00   5.96746 -144.31486      29   5.3 Hikianalia
  2022-06-08T00:18:46UTC 2022-06-07T14:18:46-10:00 2022-06-07T14:18:46-10:00   5.95655 -144.32926      25   6.5 Hōkūleʻa
  2022-06-08T00:09:42UTC 2022-06-07T14:09:42-10:00 2022-06-07T14:09:42-10:00   5.88897 -144.35861      28   6.3 Hikianalia
  2022-06-07T23:17:38UTC 2022-06-07T13:17:38-10:00 2022-06-07T13:17:38-10:00   5.85636 -144.37660      32   6.5 Hōkūleʻa
  2022-06-07T23:09:31UTC 2022-06-07T13:09:31-10:00 2022-06-07T13:09:31-10:00   5.79497 -144.40876      32   6.4 Hikianalia
  2022-06-07T22:17:33UTC 2022-06-07T12:17:33-10:00 2022-06-07T12:17:33-10:00   5.76452 -144.43427      40   8.2 Hōkūleʻa
  2022-06-07T22:09:19UTC 2022-06-07T12:09:19-10:00 2022-06-07T12:09:19-10:00   5.70394 -144.46635      34   5.9 Hikianalia
  2022-06-07T21:24:52UTC 2022-06-07T11:24:52-10:00 2022-06-07T11:24:52-10:00   5.67180 -144.51071      30   6.6 Hōkūleʻa
  2022-06-07T21:09:11UTC 2022-06-07T11:09:11-10:00 2022-06-07T11:09:11-10:00   5.62202 -144.52066      17   5.5 Hikianalia
  2022-06-07T20:25:07UTC 2022-06-07T10:25:07-10:00 2022-06-07T10:25:07-10:00   5.57646 -144.56615      21   4.5 Hōkūleʻa
  2022-06-07T20:09:51UTC 2022-06-07T10:09:51-10:00 2022-06-07T10:09:51-10:00   5.53438 -144.54761      10   4.3 Hikianalia
  2022-06-07T19:18:33UTC 2022-06-07T09:18:33-10:00 2022-06-07T09:18:33-10:00   5.49819 -144.59572       7   4.1 Hōkūleʻa
  2022-06-07T19:10:13UTC 2022-06-07T09:10:13-10:00 2022-06-07T09:10:13-10:00   5.46406 -144.55961      17   3.7 Hikianalia
  2022-06-07T18:17:37UTC 2022-06-07T08:17:37-10:00 2022-06-07T08:17:37-10:00   5.42908 -144.60471       9   5.0 Hōkūleʻa
  2022-06-07T18:09:12UTC 2022-06-07T08:09:12-10:00 2022-06-07T08:09:12-10:00   5.40310 -144.57851      21   3.8 Hikianalia
  2022-06-07T17:18:26UTC 2022-06-07T07:18:26-10:00 2022-06-07T07:18:26-10:00   5.34758 -144.61786      19   2.7 Hōkūleʻa
  2022-06-07T17:10:09UTC 2022-06-07T07:10:09-10:00 2022-06-07T07:10:09-10:00   5.34448 -144.60149      20   3.2 Hikianalia
  2022-06-07T16:18:52UTC 2022-06-07T06:18:52-10:00 2022-06-07T06:18:52-10:00   5.30529 -144.63250      46   2.2 Hōkūleʻa
  2022-06-07T16:10:39UTC 2022-06-07T06:10:39-10:00 2022-06-07T06:10:39-10:00   5.29529 -144.61930      27   2.9 Hikianalia
  2022-06-07T15:18:39UTC 2022-06-07T05:18:39-10:00 2022-06-07T05:18:39-10:00   5.27987 -144.65838      40   1.9 Hōkūleʻa
  2022-06-07T15:10:12UTC 2022-06-07T05:10:12-10:00 2022-06-07T05:10:12-10:00   5.25101 -144.64149     338   3.8 Hikianalia
  2022-06-07T14:18:39UTC 2022-06-07T04:18:39-10:00 2022-06-07T04:18:39-10:00   5.25571 -144.67840       2   3.7 Hōkūleʻa
  2022-06-07T14:10:17UTC 2022-06-07T04:10:17-10:00 2022-06-07T04:10:17-10:00   5.19184 -144.61799       5   2.7 Hikianalia
  2022-06-07T13:18:32UTC 2022-06-07T03:18:32-10:00 2022-06-07T03:18:32-10:00   5.19378 -144.68078     343   3.0 Hōkūleʻa
  2022-06-07T13:10:16UTC 2022-06-07T03:10:16-10:00 2022-06-07T03:10:16-10:00   5.14724 -144.62190       2   0.8 Hikianalia
  2022-06-07T12:18:50UTC 2022-06-07T02:18:50-10:00 2022-06-07T02:18:50-10:00   5.14614 -144.66619     336   0.7 Hōkūleʻa
  2022-06-07T12:11:01UTC 2022-06-07T02:11:01-10:00 2022-06-07T02:11:01-10:00   5.13480 -144.62226      27   1.1 Hikianalia
  2022-06-07T11:19:30UTC 2022-06-07T01:19:30-10:00 2022-06-07T01:19:30-10:00   5.13581 -144.66166       5   0.8 Hōkūleʻa
  2022-06-07T11:10:09UTC 2022-06-07T01:10:09-10:00 2022-06-07T01:10:09-10:00   5.11740 -144.63104       9   1.9 Hikianalia
  2022-06-07T10:18:46UTC 2022-06-07T00:18:46-10:00 2022-06-07T00:18:46-10:00   5.12283 -144.66276     348   4.2 Hōkūleʻa
  2022-06-07T10:10:20UTC 2022-06-07T00:10:20-10:00 2022-06-07T00:10:20-10:00   5.08573 -144.63617       7   3.6 Hikianalia
  2022-06-07T09:18:40UTC 2022-06-06T23:18:40-10:00 2022-06-06T23:18:40-10:00   5.05430 -144.64825      20   6.1 Hōkūleʻa
  2022-06-07T09:10:33UTC 2022-06-06T23:10:33-10:00 2022-06-06T23:10:33-10:00   5.02644 -144.64299      28   6.7 Hikianalia
  2022-06-07T08:17:51UTC 2022-06-06T22:17:51-10:00 2022-06-06T22:17:51-10:00   4.95767 -144.68314      25   7.1 Hōkūleʻa
  2022-06-07T08:10:49UTC 2022-06-06T22:10:49-10:00 2022-06-06T22:10:49-10:00   4.92795 -144.69466      24   7.2 Hikianalia
  2022-06-07T07:18:33UTC 2022-06-06T21:18:33-10:00 2022-06-06T21:18:33-10:00   4.85100 -144.73189      27   7.9 Hōkūleʻa
  2022-06-07T07:10:24UTC 2022-06-06T21:10:24-10:00 2022-06-06T21:10:24-10:00   4.81748 -144.74477      28   7.8 Hikianalia
  2022-06-07T06:18:39UTC 2022-06-06T20:18:39-10:00 2022-06-06T20:18:39-10:00   4.73248 -144.79135      29   7.7 Hōkūleʻa
  2022-06-07T06:10:29UTC 2022-06-06T20:10:29-10:00 2022-06-06T20:10:29-10:00   4.70273 -144.80534      25   7.6 Hikianalia
  2022-06-07T05:18:36UTC 2022-06-06T19:18:36-10:00 2022-06-06T19:18:36-10:00   4.61974 -144.85248      24   7.4 Hōkūleʻa
  2022-06-07T05:10:09UTC 2022-06-06T19:10:09-10:00 2022-06-06T19:10:09-10:00   4.58752 -144.86010      29   7.3 Hikianalia
  2022-06-07T04:18:49UTC 2022-06-06T18:18:49-10:00 2022-06-06T18:18:49-10:00   4.50771 -144.90261      33   7.2 Hōkūleʻa
  2022-06-07T04:09:40UTC 2022-06-06T18:09:40-10:00 2022-06-06T18:09:40-10:00   4.47870 -144.91932      27   7.1 Hikianalia
  2022-06-07T03:18:41UTC 2022-06-06T17:18:41-10:00 2022-06-06T17:18:41-10:00   4.40699 -144.96801      25   6.6 Hōkūleʻa
  2022-06-07T03:10:11UTC 2022-06-06T17:10:11-10:00 2022-06-06T17:10:11-10:00   4.37313 -144.97316      23   5.7 Hikianalia
  2022-06-07T02:17:36UTC 2022-06-06T16:17:36-10:00 2022-06-06T16:17:36-10:00   4.30478 -145.01548      22   6.5 Hōkūleʻa
  2022-06-07T02:09:11UTC 2022-06-06T16:09:11-10:00 2022-06-06T16:09:11-10:00   4.28332 -145.01093      27   6.8 Hikianalia
  2022-06-07T01:18:32UTC 2022-06-06T15:18:32-10:00 2022-06-06T15:18:32-10:00   4.20492 -145.05526      24   6.0 Hōkūleʻa
  2022-06-07T01:10:12UTC 2022-06-06T15:10:12-10:00 2022-06-06T15:10:12-10:00   4.18443 -145.06208      14   6.9 Hikianalia
  2022-06-07T00:20:21UTC 2022-06-06T14:20:21-10:00 2022-06-06T14:20:21-10:00   4.09107 -145.08560      15   6.3 Hikianalia
  2022-06-07T00:17:52UTC 2022-06-06T14:17:52-10:00 2022-06-06T14:17:52-10:00   4.11230 -145.09721      14   6.5 Hōkūleʻa
  2022-06-06T23:17:28UTC 2022-06-06T13:17:28-10:00 2022-06-06T13:17:28-10:00   4.00618 -145.12399      15   7.1 Hōkūleʻa
  2022-06-06T22:18:35UTC 2022-06-06T12:18:35-10:00 2022-06-06T12:18:35-10:00   3.89318 -145.15495      10   7.2 Hōkūleʻa
  2022-06-06T22:09:20UTC 2022-06-06T12:09:20-10:00 2022-06-06T12:09:20-10:00   3.86775 -145.14347      12   7.5 Hikianalia
  2022-06-06T21:17:37UTC 2022-06-06T11:17:37-10:00 2022-06-06T11:17:37-10:00   3.77328 -145.17707      14   7.6 Hōkūleʻa
  2022-06-06T21:10:20UTC 2022-06-06T11:10:20-10:00 2022-06-06T11:10:20-10:00   3.74730 -145.16793      17   7.8 Hikianalia
  2022-06-06T20:17:55UTC 2022-06-06T10:17:55-10:00 2022-06-06T10:17:55-10:00   3.65034 -145.20748      12   7.1 Hōkūleʻa
  2022-06-06T20:09:51UTC 2022-06-06T10:09:51-10:00 2022-06-06T10:09:51-10:00   3.62056 -145.20621      12   8.1 Hikianalia
  2022-06-06T19:18:26UTC 2022-06-06T09:18:26-10:00 2022-06-06T09:18:26-10:00   3.53488 -145.23104       6   6.3 Hōkūleʻa
  2022-06-06T19:09:17UTC 2022-06-06T09:09:17-10:00 2022-06-06T09:09:17-10:00   3.48676 -145.23338       6   7.7 Hikianalia
  2022-06-06T18:17:37UTC 2022-06-06T08:17:37-10:00 2022-06-06T08:17:37-10:00   3.42840 -145.24160       5   6.5 Hōkūleʻa
  2022-06-06T18:10:19UTC 2022-06-06T08:10:19-10:00 2022-06-06T08:10:19-10:00   3.36091 -145.24705       3   7.3 Hikianalia
  2022-06-06T17:18:30UTC 2022-06-06T07:18:30-10:00 2022-06-06T07:18:30-10:00   3.32209 -145.25027     360   6.4 Hōkūleʻa
  2022-06-06T17:10:14UTC 2022-06-06T07:10:14-10:00 2022-06-06T07:10:14-10:00   3.23892 -145.25318       2   7.4 Hikianalia
  2022-06-06T16:18:52UTC 2022-06-06T06:18:52-10:00 2022-06-06T06:18:52-10:00   3.21630 -145.24994      12   7.2 Hōkūleʻa
  2022-06-06T16:11:14UTC 2022-06-06T06:11:14-10:00 2022-06-06T06:11:14-10:00   3.11682 -145.25814      10   6.6 Hikianalia
  2022-06-06T15:18:31UTC 2022-06-06T05:18:31-10:00 2022-06-06T05:18:31-10:00   3.09708 -145.27539      15   6.8 Hōkūleʻa
  2022-06-06T15:10:26UTC 2022-06-06T05:10:26-10:00 2022-06-06T05:10:26-10:00   3.00672 -145.27795      10   6.1 Hikianalia
  2022-06-06T14:18:36UTC 2022-06-06T04:18:36-10:00 2022-06-06T04:18:36-10:00   2.98777 -145.30419      13   6.2 Hōkūleʻa
  2022-06-06T14:10:26UTC 2022-06-06T04:10:26-10:00 2022-06-06T04:10:26-10:00   2.90549 -145.29595      13   5.7 Hikianalia
  2022-06-06T13:18:33UTC 2022-06-06T03:18:33-10:00 2022-06-06T03:18:33-10:00   2.88687 -145.32648      11   6.2 Hōkūleʻa
  2022-06-06T13:10:11UTC 2022-06-06T03:10:11-10:00 2022-06-06T03:10:11-10:00   2.81202 -145.31805      11   6.0 Hikianalia
  2022-06-06T12:18:50UTC 2022-06-06T02:18:50-10:00 2022-06-06T02:18:50-10:00   2.78602 -145.34642       7   5.9 Hōkūleʻa
  2022-06-06T12:10:42UTC 2022-06-06T02:10:42-10:00 2022-06-06T02:10:42-10:00   2.71466 -145.33713      15   5.9 Hikianalia
  2022-06-06T11:18:39UTC 2022-06-06T01:18:39-10:00 2022-06-06T01:18:39-10:00   2.68776 -145.35843      11   6.1 Hōkūleʻa
  2022-06-06T11:10:18UTC 2022-06-06T01:10:18-10:00 2022-06-06T01:10:18-10:00   2.61875 -145.36330      10   6.2 Hikianalia
  2022-06-06T10:18:39UTC 2022-06-06T00:18:39-10:00 2022-06-06T00:18:39-10:00   2.58694 -145.37880       8   5.9 Hōkūleʻa
  2022-06-06T10:17:41UTC 2022-06-06T00:17:41-10:00 2022-06-06T00:17:41-10:00   2.52973 -145.37869       8   4.8 Hikianalia
  2022-06-06T09:18:33UTC 2022-06-05T23:18:33-10:00 2022-06-05T23:18:33-10:00   2.48861 -145.39317       8   6.6 Hōkūleʻa
  2022-06-06T09:10:11UTC 2022-06-05T23:10:11-10:00 2022-06-05T23:10:11-10:00   2.43959 -145.39071      15   5.5 Hikianalia
  2022-06-06T08:25:33UTC 2022-06-05T22:25:33-10:00 2022-06-05T22:25:33-10:00   2.39196 -145.40592      17   4.9 Hōkūleʻa
  2022-06-06T08:10:50UTC 2022-06-05T22:10:50-10:00 2022-06-05T22:10:50-10:00   2.35230 -145.41459      12   4.7 Hikianalia
  2022-06-06T07:18:36UTC 2022-06-05T21:18:36-10:00 2022-06-05T21:18:36-10:00   2.30440 -145.43283      20   5.8 Hōkūleʻa
  2022-06-06T07:10:21UTC 2022-06-05T21:10:21-10:00 2022-06-05T21:10:21-10:00   2.27448 -145.43152      18   5.9 Hikianalia
  2022-06-06T06:17:40UTC 2022-06-05T20:17:40-10:00 2022-06-05T20:17:40-10:00   2.21201 -145.46677      17   6.2 Hōkūleʻa
  2022-06-06T06:10:19UTC 2022-06-05T20:10:19-10:00 2022-06-05T20:10:19-10:00   2.17986 -145.46267      22   6.3 Hikianalia
  2022-06-06T05:18:29UTC 2022-06-05T19:18:29-10:00 2022-06-05T19:18:29-10:00   2.11487 -145.49662      17   6.1 Hōkūleʻa
  2022-06-06T05:10:16UTC 2022-06-05T19:10:16-10:00 2022-06-05T19:10:16-10:00   2.08191 -145.50117      18   6.3 Hikianalia
  2022-06-06T04:18:43UTC 2022-06-05T18:18:43-10:00 2022-06-05T18:18:43-10:00   2.01784 -145.52546      21   6.4 Hōkūleʻa
  2022-06-06T04:10:53UTC 2022-06-05T18:10:53-10:00 2022-06-05T18:10:53-10:00   1.98313 -145.53254      19   6.4 Hikianalia
  2022-06-06T03:18:40UTC 2022-06-05T17:18:40-10:00 2022-06-05T17:18:40-10:00   1.91777 -145.56361      18   6.7 Hōkūleʻa
  2022-06-06T03:10:19UTC 2022-06-05T17:10:19-10:00 2022-06-05T17:10:19-10:00   1.88024 -145.56765      15   6.7 Hikianalia
  2022-06-06T02:17:40UTC 2022-06-05T16:17:40-10:00 2022-06-05T16:17:40-10:00   1.80969 -145.59940      23   7.1 Hōkūleʻa
  2022-06-06T02:09:17UTC 2022-06-05T16:09:17-10:00 2022-06-05T16:09:17-10:00   1.77064 -145.59674      21   6.6 Hikianalia
  2022-06-06T01:18:32UTC 2022-06-05T15:18:32-10:00 2022-06-05T15:18:32-10:00   1.70234 -145.64412      25   6.6 Hōkūleʻa
  2022-06-06T01:10:12UTC 2022-06-05T15:10:12-10:00 2022-06-05T15:10:12-10:00   1.66862 -145.63537      23   6.2 Hikianalia
  2022-06-06T00:17:51UTC 2022-06-05T14:17:51-10:00 2022-06-05T14:17:51-10:00   1.60089 -145.69030      18   6.0 Hōkūleʻa
  2022-06-06T00:09:41UTC 2022-06-05T14:09:41-10:00 2022-06-05T14:09:41-10:00   1.57219 -145.67622      16   5.5 Hikianalia
  2022-06-05T23:17:27UTC 2022-06-05T13:17:27-10:00 2022-06-05T13:17:27-10:00   1.50468 -145.72094      14   6.1 Hōkūleʻa
  2022-06-05T23:09:14UTC 2022-06-05T13:09:14-10:00 2022-06-05T13:09:14-10:00   1.48266 -145.70128      19   6.2 Hikianalia
  2022-06-05T22:17:41UTC 2022-06-05T12:17:41-10:00 2022-06-05T12:17:41-10:00   1.40677 -145.74564      20   6.7 Hōkūleʻa
  2022-06-05T22:10:47UTC 2022-06-05T12:10:47-10:00 2022-06-05T12:10:47-10:00   1.38672 -145.73319      22   6.8 Hikianalia
  2022-06-05T21:18:32UTC 2022-06-05T11:18:32-10:00 2022-06-05T11:18:32-10:00   1.30214 -145.78362      20   6.8 Hōkūleʻa
  2022-06-05T21:09:20UTC 2022-06-05T11:09:20-10:00 2022-06-05T11:09:20-10:00   1.27921 -145.77602      20   7.0 Hikianalia
  2022-06-05T20:17:58UTC 2022-06-05T10:17:58-10:00 2022-06-05T10:17:58-10:00   1.19338 -145.82271      30   6.5 Hōkūleʻa
  2022-06-05T20:09:49UTC 2022-06-05T10:09:49-10:00 2022-06-05T10:09:49-10:00   1.17009 -145.81613      28   7.0 Hikianalia
  2022-06-05T19:17:27UTC 2022-06-05T09:17:27-10:00 2022-06-05T09:17:27-10:00   1.09839 -145.87653      29   6.7 Hōkūleʻa
  2022-06-05T19:10:13UTC 2022-06-05T09:10:13-10:00 2022-06-05T09:10:13-10:00   1.06742 -145.87074      24   6.6 Hikianalia
  2022-06-05T18:18:37UTC 2022-06-05T08:18:37-10:00 2022-06-05T08:18:37-10:00   1.00243 -145.92910      28   6.5 Hōkūleʻa
  2022-06-05T18:09:10UTC 2022-06-05T08:09:10-10:00 2022-06-05T08:09:10-10:00   0.96513 -145.91618      23   6.8 Hikianalia
  2022-06-05T17:18:35UTC 2022-06-05T07:18:35-10:00 2022-06-05T07:18:35-10:00   0.90674 -145.98054      25   7.0 Hōkūleʻa
  2022-06-05T17:10:13UTC 2022-06-05T07:10:13-10:00 2022-06-05T07:10:13-10:00   0.86247 -145.95961      28   7.5 Hikianalia
  2022-06-05T16:18:53UTC 2022-06-05T06:18:53-10:00 2022-06-05T06:18:53-10:00   0.80163 -146.02956      23   7.3 Hōkūleʻa
  2022-06-05T16:10:49UTC 2022-06-05T06:10:49-10:00 2022-06-05T06:10:49-10:00   0.75333 -146.01800      33   8.3 Hikianalia
  2022-06-05T15:18:41UTC 2022-06-05T05:18:41-10:00 2022-06-05T05:18:41-10:00   0.68885 -146.07815      28   8.3 Hōkūleʻa
  2022-06-05T15:10:11UTC 2022-06-05T05:10:11-10:00 2022-06-05T05:10:11-10:00   0.63533 -146.09342      25   8.2 Hikianalia
  2022-06-05T14:18:39UTC 2022-06-05T04:18:39-10:00 2022-06-05T04:18:39-10:00   0.56648 -146.14222      25   7.1 Hōkūleʻa
  2022-06-05T14:10:17UTC 2022-06-05T04:10:17-10:00 2022-06-05T04:10:17-10:00   0.51141 -146.15104      27   7.8 Hikianalia
  2022-06-05T13:18:40UTC 2022-06-05T03:18:40-10:00 2022-06-05T03:18:40-10:00   0.45863 -146.19118      26   6.0 Hōkūleʻa
  2022-06-05T13:10:19UTC 2022-06-05T03:10:19-10:00 2022-06-05T03:10:19-10:00   0.39581 -146.21009      26   8.7 Hikianalia
  2022-06-05T12:20:31UTC 2022-06-05T02:20:31-10:00 2022-06-05T02:20:31-10:00   0.28669 -146.26197      19   5.6 Hikianalia
  2022-06-05T12:18:52UTC 2022-06-05T02:18:52-10:00 2022-06-05T02:18:52-10:00   0.36777 -146.23455      26   5.9 Hōkūleʻa
  2022-06-05T11:18:30UTC 2022-06-05T01:18:30-10:00 2022-06-05T01:18:30-10:00   0.27886 -146.27755      20   5.9 Hōkūleʻa
  2022-06-05T11:10:09UTC 2022-06-05T01:10:09-10:00 2022-06-05T01:10:09-10:00   0.18357 -146.29796      15   5.7 Hikianalia
  2022-06-05T10:18:41UTC 2022-06-05T00:18:41-10:00 2022-06-05T00:18:41-10:00   0.18650 -146.31167      22   7.2 Hōkūleʻa
  2022-06-05T10:10:11UTC 2022-06-05T00:10:11-10:00 2022-06-05T00:10:11-10:00   0.09070 -146.32197      17   6.1 Hikianalia
  2022-06-05T09:18:39UTC 2022-06-04T23:18:39-10:00 2022-06-04T23:18:39-10:00   0.07443 -146.35604      21   7.5 Hōkūleʻa
  2022-06-05T09:11:19UTC 2022-06-04T23:11:19-10:00 2022-06-04T23:11:19-10:00  -0.00511 -146.35034      18   8.4 Hikianalia
  2022-06-05T08:27:48UTC 2022-06-04T22:27:48-10:00 2022-06-04T22:27:48-10:00  -0.10256 -146.38124      23   5.1 Hikianalia
  2022-06-05T08:18:52UTC 2022-06-04T22:18:52-10:00 2022-06-04T22:18:52-10:00  -0.04190 -146.40145      20   5.8 Hōkūleʻa
  2022-06-05T07:16:05UTC 2022-06-04T21:16:05-10:00 2022-06-04T21:16:05-10:00  -0.19722 -146.42074      27   5.7 Hikianalia
  2022-06-05T06:19:35UTC 2022-06-04T20:19:35-10:00 2022-06-04T20:19:35-10:00  -0.22461 -146.46775      32   7.1 Hōkūleʻa
  2022-06-05T06:10:20UTC 2022-06-04T20:10:20-10:00 2022-06-04T20:10:20-10:00  -0.29114 -146.46833      34   6.8 Hikianalia
  2022-06-05T05:18:31UTC 2022-06-04T19:18:31-10:00 2022-06-04T19:18:31-10:00  -0.32804 -146.53103      34   7.5 Hōkūleʻa
  2022-06-05T05:10:10UTC 2022-06-04T19:10:10-10:00 2022-06-04T19:10:10-10:00  -0.38686 -146.53150      38   6.1 Hikianalia
  2022-06-05T04:18:51UTC 2022-06-04T18:18:51-10:00 2022-06-04T18:18:51-10:00  -0.43191 -146.59995      33   4.0 Hōkūleʻa
  2022-06-05T04:11:01UTC 2022-06-04T18:11:01-10:00 2022-06-04T18:11:01-10:00  -0.46693 -146.59277      35   3.0 Hikianalia
  2022-06-05T03:18:38UTC 2022-06-04T17:18:38-10:00 2022-06-04T17:18:38-10:00  -0.48886 -146.63692      36   4.5 Hōkūleʻa
  2022-06-05T03:10:12UTC 2022-06-04T17:10:12-10:00 2022-06-04T17:10:12-10:00  -0.50802 -146.62186      41   5.0 Hikianalia
  2022-06-05T02:17:38UTC 2022-06-04T16:17:38-10:00 2022-06-04T16:17:38-10:00  -0.55167 -146.68177      36   6.2 Hōkūleʻa
  2022-06-05T02:09:19UTC 2022-06-04T16:09:19-10:00 2022-06-04T16:09:19-10:00  -0.57292 -146.67765      52   6.2 Hikianalia
  2022-06-05T01:18:35UTC 2022-06-04T15:18:35-10:00 2022-06-04T15:18:35-10:00  -0.63405 -146.74087      36   6.2 Hōkūleʻa
  2022-06-05T01:10:20UTC 2022-06-04T15:10:20-10:00 2022-06-04T15:10:20-10:00  -0.63667 -146.75734      55   6.6 Hikianalia
  2022-06-05T00:17:47UTC 2022-06-04T14:17:47-10:00 2022-06-04T14:17:47-10:00  -0.71917 -146.80166      46   6.2 Hōkūleʻa
  2022-06-05T00:09:50UTC 2022-06-04T14:09:50-10:00 2022-06-04T14:09:50-10:00  -0.70108 -146.84742      45   6.2 Hikianalia
  2022-06-04T23:18:40UTC 2022-06-04T13:18:40-10:00 2022-06-04T13:18:40-10:00  -0.78960 -146.87493      49   6.3 Hōkūleʻa
  2022-06-04T23:10:10UTC 2022-06-04T13:10:10-10:00 2022-06-04T13:10:10-10:00  -0.77403 -146.92077      39   5.6 Hikianalia
  2022-06-04T22:27:49UTC 2022-06-04T12:27:49-10:00 2022-06-04T12:27:49-10:00  -0.84823 -146.94235      45   4.7 Hōkūleʻa
  2022-06-04T22:10:21UTC 2022-06-04T12:10:21-10:00 2022-06-04T12:10:21-10:00  -0.84635 -146.97909      39   5.4 Hikianalia
  2022-06-04T21:18:33UTC 2022-06-04T11:18:33-10:00 2022-06-04T11:18:33-10:00  -0.91231 -147.00518      32   5.0 Hōkūleʻa
  2022-06-04T21:09:11UTC 2022-06-04T11:09:11-10:00 2022-06-04T11:09:11-10:00  -0.91775 -147.03745      27   5.4 Hikianalia
  2022-06-04T20:17:50UTC 2022-06-04T10:17:50-10:00 2022-06-04T10:17:50-10:00  -0.98339 -147.05014      28   5.2 Hōkūleʻa
  2022-06-04T20:09:42UTC 2022-06-04T10:09:42-10:00 2022-06-04T10:09:42-10:00  -0.99838 -147.07743      23   5.3 Hikianalia
  2022-06-04T19:18:33UTC 2022-06-04T09:18:33-10:00 2022-06-04T09:18:33-10:00  -1.05931 -147.09015      25   5.5 Hōkūleʻa
  2022-06-04T19:09:12UTC 2022-06-04T09:09:12-10:00 2022-06-04T09:09:12-10:00  -1.08169 -147.11172      15   6.3 Hikianalia
  2022-06-04T18:18:33UTC 2022-06-04T08:18:33-10:00 2022-06-04T08:18:33-10:00  -1.14215 -147.12910      22   5.8 Hōkūleʻa
  2022-06-04T18:10:19UTC 2022-06-04T08:10:19-10:00 2022-06-04T08:10:19-10:00  -1.18104 -147.13772      12   6.2 Hikianalia
  2022-06-04T17:18:36UTC 2022-06-04T07:18:36-10:00 2022-06-04T07:18:36-10:00  -1.23304 -147.16521       6   5.2 Hōkūleʻa
  2022-06-04T17:10:16UTC 2022-06-04T07:10:16-10:00 2022-06-04T07:10:16-10:00  -1.28323 -147.15865      20   5.5 Hikianalia
  2022-06-04T16:18:52UTC 2022-06-04T06:18:52-10:00 2022-06-04T06:18:52-10:00  -1.31934 -147.17435      16   6.2 Hōkūleʻa
  2022-06-04T16:10:48UTC 2022-06-04T06:10:48-10:00 2022-06-04T06:10:48-10:00  -1.36830 -147.19010      18   6.1 Hikianalia
  2022-06-04T15:18:39UTC 2022-06-04T05:18:39-10:00 2022-06-04T05:18:39-10:00  -1.42024 -147.20253      25   6.0 Hōkūleʻa
  2022-06-04T15:10:21UTC 2022-06-04T05:10:21-10:00 2022-06-04T05:10:21-10:00  -1.46560 -147.22141      28   6.0 Hikianalia
  2022-06-04T14:18:40UTC 2022-06-04T04:18:40-10:00 2022-06-04T04:18:40-10:00  -1.51180 -147.24523      24   5.7 Hōkūleʻa
  2022-06-04T14:10:19UTC 2022-06-04T04:10:19-10:00 2022-06-04T04:10:19-10:00  -1.55442 -147.26915      27   5.6 Hikianalia
  2022-06-04T13:18:35UTC 2022-06-04T03:18:35-10:00 2022-06-04T03:18:35-10:00  -1.59967 -147.28417      28   6.0 Hōkūleʻa
  2022-06-04T13:09:12UTC 2022-06-04T03:09:12-10:00 2022-06-04T03:09:12-10:00  -1.63954 -147.31267      25   6.2 Hikianalia
  2022-06-04T12:18:41UTC 2022-06-04T02:18:41-10:00 2022-06-04T02:18:41-10:00  -1.68758 -147.33063      23   6.7 Hōkūleʻa
  2022-06-04T12:10:38UTC 2022-06-04T02:10:38-10:00 2022-06-04T02:10:38-10:00  -1.73118 -147.35520      22   6.7 Hikianalia
  2022-06-04T11:17:40UTC 2022-06-04T01:17:40-10:00 2022-06-04T01:17:40-10:00  -1.79264 -147.37528      18   6.8 Hōkūleʻa
  2022-06-04T11:10:11UTC 2022-06-04T01:10:11-10:00 2022-06-04T01:10:11-10:00  -1.83590 -147.39764      20   6.8 Hikianalia
  2022-06-04T10:18:32UTC 2022-06-04T00:18:32-10:00 2022-06-04T00:18:32-10:00  -1.89861 -147.41045      16   6.7 Hōkūleʻa
  2022-06-04T10:10:12UTC 2022-06-04T00:10:12-10:00 2022-06-04T00:10:12-10:00  -1.94298 -147.43599      19   6.7 Hikianalia
  2022-06-04T09:18:41UTC 2022-06-03T23:18:41-10:00 2022-06-03T23:18:41-10:00  -2.00710 -147.44066      20   6.7 Hōkūleʻa
  2022-06-04T09:10:17UTC 2022-06-03T23:10:17-10:00 2022-06-03T23:10:17-10:00  -2.04852 -147.47285      20   6.9 Hikianalia
  2022-06-04T08:18:47UTC 2022-06-03T22:18:47-10:00 2022-06-03T22:18:47-10:00  -2.11194 -147.47955      22   8.2 Hōkūleʻa
  2022-06-04T08:09:50UTC 2022-06-03T22:09:50-10:00 2022-06-03T22:09:50-10:00  -2.15733 -147.51276      24   6.6 Hikianalia
  2022-06-04T07:29:30UTC 2022-06-03T21:29:30-10:00 2022-06-03T21:29:30-10:00  -2.21671 -147.52081      28   5.1 Hōkūleʻa
  2022-06-04T07:10:11UTC 2022-06-03T21:10:11-10:00 2022-06-03T21:10:11-10:00  -2.25795 -147.55628      29   5.8 Hikianalia
  2022-06-04T06:18:38UTC 2022-06-03T20:18:38-10:00 2022-06-03T20:18:38-10:00  -2.30625 -147.56802      27   5.6 Hōkūleʻa
  2022-06-04T06:10:18UTC 2022-06-03T20:10:18-10:00 2022-06-03T20:10:18-10:00  -2.34348 -147.60308      20   5.9 Hikianalia
  2022-06-04T05:18:35UTC 2022-06-03T19:18:35-10:00 2022-06-03T19:18:35-10:00  -2.38964 -147.61010      18   5.3 Hōkūleʻa
  2022-06-04T05:10:15UTC 2022-06-03T19:10:15-10:00 2022-06-03T19:10:15-10:00  -2.43639 -147.63664      18   4.8 Hikianalia
  2022-06-04T04:18:51UTC 2022-06-03T18:18:51-10:00 2022-06-03T18:18:51-10:00  -2.47313 -147.63700      10   5.1 Hōkūleʻa
  2022-06-04T04:10:47UTC 2022-06-03T18:10:47-10:00 2022-06-03T18:10:47-10:00  -2.51230 -147.66131       4   5.2 Hikianalia
  2022-06-04T03:17:39UTC 2022-06-03T17:17:39-10:00 2022-06-03T17:17:39-10:00  -2.55962 -147.65215       5   5.4 Hōkūleʻa
  2022-06-04T03:10:18UTC 2022-06-03T17:10:18-10:00 2022-06-03T17:10:18-10:00  -2.59907 -147.66807       3   5.2 Hikianalia
  2022-06-04T02:18:28UTC 2022-06-03T16:18:28-10:00 2022-06-03T16:18:28-10:00  -2.64771 -147.66031       1   5.4 Hōkūleʻa
  2022-06-04T02:09:17UTC 2022-06-03T16:09:17-10:00 2022-06-03T16:09:17-10:00  -2.68706 -147.67224     358   5.6 Hikianalia
  2022-06-04T01:18:33UTC 2022-06-03T15:18:33-10:00 2022-06-03T15:18:33-10:00  -2.73825 -147.66249       8   5.5 Hōkūleʻa
  2022-06-04T01:10:16UTC 2022-06-03T15:10:16-10:00 2022-06-03T15:10:16-10:00  -2.78001 -147.66938       9   5.0 Hikianalia
  2022-06-04T00:17:50UTC 2022-06-03T14:17:50-10:00 2022-06-03T14:17:50-10:00  -2.82999 -147.67475       7   5.8 Hōkūleʻa
  2022-06-04T00:09:58UTC 2022-06-03T14:09:58-10:00 2022-06-03T14:09:58-10:00  -2.86249 -147.68294       9   5.1 Hikianalia
  2022-06-03T23:18:38UTC 2022-06-03T13:18:38-10:00 2022-06-03T13:18:38-10:00  -2.92563 -147.68614       9   5.6 Hōkūleʻa
  2022-06-03T23:09:17UTC 2022-06-03T13:09:17-10:00 2022-06-03T13:09:17-10:00  -2.94789 -147.69676       8   6.0 Hikianalia
  2022-06-03T22:17:29UTC 2022-06-03T12:17:29-10:00 2022-06-03T12:17:29-10:00  -3.02073 -147.70170       3   5.7 Hōkūleʻa
  2022-06-03T22:10:14UTC 2022-06-03T12:10:14-10:00 2022-06-03T12:10:14-10:00  -3.04664 -147.71028       3   6.8 Hikianalia
  2022-06-03T21:17:33UTC 2022-06-03T11:17:33-10:00 2022-06-03T11:17:33-10:00  -3.11649 -147.70676       2   5.9 Hōkūleʻa
  2022-06-03T21:15:05UTC 2022-06-03T11:15:05-10:00 2022-06-03T11:15:05-10:00  -3.15058 -147.71532     359   5.6 Hikianalia
  2022-06-03T20:17:51UTC 2022-06-03T10:17:51-10:00 2022-06-03T10:17:51-10:00  -3.21476 -147.71004     358   5.8 Hōkūleʻa
  2022-06-03T20:09:42UTC 2022-06-03T10:09:42-10:00 2022-06-03T10:09:42-10:00  -3.25205 -147.71337     354   6.1 Hikianalia
  2022-06-03T19:18:33UTC 2022-06-03T09:18:33-10:00 2022-06-03T09:18:33-10:00  -3.31097 -147.70745     352   5.3 Hōkūleʻa
  2022-06-03T19:10:12UTC 2022-06-03T09:10:12-10:00 2022-06-03T09:10:12-10:00  -3.35243 -147.70328     350   6.7 Hikianalia
  2022-06-03T18:18:39UTC 2022-06-03T08:18:39-10:00 2022-06-03T08:18:39-10:00  -3.39871 -147.69517     351   6.4 Hōkūleʻa
  2022-06-03T18:17:33UTC 2022-06-03T08:17:33-10:00 2022-06-03T08:17:33-10:00  -3.44993 -147.68590     355   5.2 Hikianalia
  2022-06-03T17:18:37UTC 2022-06-03T07:18:37-10:00 2022-06-03T07:18:37-10:00  -3.50427 -147.67766     360   6.3 Hōkūleʻa
  2022-06-03T17:10:09UTC 2022-06-03T07:10:09-10:00 2022-06-03T07:10:09-10:00  -3.54738 -147.67807     358   6.2 Hikianalia
  2022-06-03T16:18:52UTC 2022-06-03T06:18:52-10:00 2022-06-03T06:18:52-10:00  -3.60998 -147.67745     341   4.2 Hōkūleʻa
  2022-06-03T16:10:50UTC 2022-06-03T06:10:50-10:00 2022-06-03T06:10:50-10:00  -3.65080 -147.67518       3   6.6 Hikianalia
  2022-06-03T15:18:38UTC 2022-06-03T05:18:38-10:00 2022-06-03T05:18:38-10:00  -3.67706 -147.65406     358   5.6 Hōkūleʻa
  2022-06-03T15:10:10UTC 2022-06-03T05:10:10-10:00 2022-06-03T05:10:10-10:00  -3.76315 -147.68041     351   5.3 Hikianalia
  2022-06-03T14:18:30UTC 2022-06-03T04:18:30-10:00 2022-06-03T04:18:30-10:00  -3.77084 -147.65151     352   5.4 Hōkūleʻa
  2022-06-03T14:09:15UTC 2022-06-03T04:09:15-10:00 2022-06-03T04:09:15-10:00  -3.85143 -147.66717     349   5.2 Hikianalia
  2022-06-03T13:18:32UTC 2022-06-03T03:18:32-10:00 2022-06-03T03:18:32-10:00  -3.85981 -147.63889     356   4.9 Hōkūleʻa
  2022-06-03T13:10:10UTC 2022-06-03T03:10:10-10:00 2022-06-03T03:10:10-10:00  -3.93556 -147.65041     355   4.4 Hikianalia
  2022-06-03T12:18:51UTC 2022-06-03T02:18:51-10:00 2022-06-03T02:18:51-10:00  -3.94130 -147.63301       1   4.8 Hōkūleʻa
  2022-06-03T12:10:39UTC 2022-06-03T02:10:39-10:00 2022-06-03T02:10:39-10:00  -4.00860 -147.64462       0   4.2 Hikianalia
  2022-06-03T11:18:41UTC 2022-06-03T01:18:41-10:00 2022-06-03T01:18:41-10:00  -4.02243 -147.63428       6   4.5 Hōkūleʻa
  2022-06-03T11:10:18UTC 2022-06-03T01:10:18-10:00 2022-06-03T01:10:18-10:00  -4.07933 -147.64498       6   3.5 Hikianalia
  2022-06-03T10:18:38UTC 2022-06-03T00:18:38-10:00 2022-06-03T00:18:38-10:00  -4.09677 -147.64153       8   5.0 Hōkūleʻa
  2022-06-03T10:10:20UTC 2022-06-03T00:10:20-10:00 2022-06-03T00:10:20-10:00  -4.13832 -147.65123       7   4.5 Hikianalia
  2022-06-03T09:18:32UTC 2022-06-02T23:18:32-10:00 2022-06-02T23:18:32-10:00  -4.17984 -147.65318      10   5.9 Hōkūleʻa
  2022-06-03T09:09:11UTC 2022-06-02T23:09:11-10:00 2022-06-02T23:09:11-10:00  -4.21417 -147.66093      10   5.7 Hikianalia
  2022-06-03T08:18:44UTC 2022-06-02T22:18:44-10:00 2022-06-02T22:18:44-10:00  -4.27671 -147.66972      10   6.1 Hōkūleʻa
  2022-06-03T08:10:42UTC 2022-06-02T22:10:42-10:00 2022-06-02T22:10:42-10:00  -4.30600 -147.67683       9   6.3 Hikianalia
  2022-06-03T07:18:41UTC 2022-06-02T21:18:41-10:00 2022-06-02T21:18:41-10:00  -4.37700 -147.68796       6   6.2 Hōkūleʻa
  2022-06-03T07:11:17UTC 2022-06-02T21:11:17-10:00 2022-06-02T21:11:17-10:00  -4.40967 -147.69262      10   7.2 Hikianalia
  2022-06-03T06:19:44UTC 2022-06-02T20:19:44-10:00 2022-06-02T20:19:44-10:00  -4.51206 -147.71052       7   5.4 Hikianalia
  2022-06-03T06:17:40UTC 2022-06-02T20:17:40-10:00 2022-06-02T20:17:40-10:00  -4.48275 -147.69987       7   6.3 Hōkūleʻa
  2022-06-03T05:18:30UTC 2022-06-02T19:18:30-10:00 2022-06-02T19:18:30-10:00  -4.58615 -147.71180      10   6.2 Hōkūleʻa
  2022-06-03T05:09:09UTC 2022-06-02T19:09:09-10:00 2022-06-02T19:09:09-10:00  -4.61730 -147.72410      10   6.6 Hikianalia
  2022-06-03T04:18:44UTC 2022-06-02T18:18:44-10:00 2022-06-02T18:18:44-10:00  -4.68808 -147.73004       7   6.5 Hōkūleʻa
  2022-06-03T04:10:41UTC 2022-06-02T18:10:41-10:00 2022-06-02T18:10:41-10:00  -4.72344 -147.74347       6   7.7 Hikianalia
  2022-06-03T03:18:41UTC 2022-06-02T17:18:41-10:00 2022-06-02T17:18:41-10:00  -4.79636 -147.74375       9   6.5 Hōkūleʻa
  2022-06-03T03:18:06UTC 2022-06-02T17:18:06-10:00 2022-06-02T17:18:06-10:00  -4.83643 -147.75622      11   5.7 Hikianalia
  2022-06-03T02:17:30UTC 2022-06-02T16:17:30-10:00 2022-06-02T16:17:30-10:00  -4.90678 -147.76075      14   6.6 Hōkūleʻa
  2022-06-03T02:09:09UTC 2022-06-02T16:09:09-10:00 2022-06-02T16:09:09-10:00  -4.94417 -147.77708       7   6.8 Hikianalia
  2022-06-03T01:18:42UTC 2022-06-02T15:18:42-10:00 2022-06-02T15:18:42-10:00  -5.01125 -147.78637      13   6.4 Hōkūleʻa
  2022-06-03T01:10:18UTC 2022-06-02T15:10:18-10:00 2022-06-02T15:10:18-10:00  -5.05519 -147.79109       5   6.9 Hikianalia
  2022-06-03T00:17:52UTC 2022-06-02T14:17:52-10:00 2022-06-02T14:17:52-10:00  -5.11696 -147.81042      13   7.1 Hōkūleʻa
  2022-06-03T00:09:38UTC 2022-06-02T14:09:38-10:00 2022-06-02T14:09:38-10:00  -5.17201 -147.80210       9   7.4 Hikianalia
  2022-06-02T23:17:36UTC 2022-06-02T13:17:36-10:00 2022-06-02T13:17:36-10:00  -5.23271 -147.83645      11   7.1 Hōkūleʻa
  2022-06-02T23:09:09UTC 2022-06-02T13:09:09-10:00 2022-06-02T13:09:09-10:00  -5.29486 -147.82216      14   7.3 Hikianalia
  2022-06-02T22:18:33UTC 2022-06-02T12:18:33-10:00 2022-06-02T12:18:33-10:00  -5.34705 -147.85930      11   7.1 Hōkūleʻa
  2022-06-02T22:10:14UTC 2022-06-02T12:10:14-10:00 2022-06-02T12:10:14-10:00  -5.41121 -147.85149       4   6.5 Hikianalia
  2022-06-02T21:17:38UTC 2022-06-02T11:17:38-10:00 2022-06-02T11:17:38-10:00  -5.46511 -147.88164       4   7.8 Hōkūleʻa
  2022-06-02T21:09:18UTC 2022-06-02T11:09:18-10:00 2022-06-02T11:09:18-10:00  -5.52176 -147.85898     355   7.5 Hikianalia
  2022-06-02T20:18:52UTC 2022-06-02T10:18:52-10:00 2022-06-02T10:18:52-10:00  -5.59245 -147.88950       3   7.1 Hōkūleʻa
  2022-06-02T20:10:09UTC 2022-06-02T10:10:09-10:00 2022-06-02T10:10:09-10:00  -5.64532 -147.84716      12   6.8 Hikianalia
  2022-06-02T19:17:35UTC 2022-06-02T09:17:35-10:00 2022-06-02T09:17:35-10:00  -5.71448 -147.89516       1   7.2 Hōkūleʻa
  2022-06-02T19:10:12UTC 2022-06-02T09:10:12-10:00 2022-06-02T09:10:12-10:00  -5.75607 -147.87106       7   7.2 Hikianalia
  2022-06-02T18:18:41UTC 2022-06-02T08:18:41-10:00 2022-06-02T08:18:41-10:00  -5.83280 -147.89718     359   6.9 Hōkūleʻa
  2022-06-02T18:09:12UTC 2022-06-02T08:09:12-10:00 2022-06-02T08:09:12-10:00  -5.87733 -147.88640       3   7.0 Hikianalia
  2022-06-02T17:18:38UTC 2022-06-02T07:18:38-10:00 2022-06-02T07:18:38-10:00  -5.94917 -147.89443     333   4.0 Hōkūleʻa
  2022-06-02T17:10:08UTC 2022-06-02T07:10:08-10:00 2022-06-02T07:10:08-10:00  -5.99305 -147.89246      12   5.3 Hikianalia
  2022-06-02T16:18:44UTC 2022-06-02T06:18:44-10:00 2022-06-02T06:18:44-10:00  -6.00814 -147.86407      12   6.1 Hōkūleʻa
  2022-06-02T16:10:40UTC 2022-06-02T06:10:40-10:00 2022-06-02T06:10:40-10:00  -6.07851 -147.91123      10   6.3 Hikianalia
  2022-06-02T15:18:59UTC 2022-06-02T05:18:59-10:00 2022-06-02T05:18:59-10:00  -6.10764 -147.88598      16   5.9 Hōkūleʻa
  2022-06-02T15:10:18UTC 2022-06-02T05:10:18-10:00 2022-06-02T05:10:18-10:00  -6.18350 -147.93046      13   5.7 Hikianalia
  2022-06-02T14:1